Time,TemperatureF,DewpointF,PressureIn,WindDirection,WindDirectionDegrees,WindSpeedMPH,WindSpeedGustMPH,Humidity,HourlyPrecipIn,Conditions,Clouds,dailyrainin,SoftwareType,DateUTC
2013-01-27 00:00:00,33.8,24.4,29.32,NW,320,3.6,3.6,68,0.00,,---,0.00,VWS V14.01,2013-01-27 06:00:00,
2013-01-27 00:01:00,33.8,24.4,29.32,NW,320,3.6,3.6,68,0.00,,---,0.00,VWS V14.01,2013-01-27 06:01:00,
2013-01-27 00:02:00,33.8,24.4,29.32,NW,320,3.6,3.6,68,0.00,,---,0.00,VWS V14.01,2013-01-27 06:02:00,
2013-01-27 00:03:00,33.8,24.7,29.32,NW,320,3.6,3.6,69,0.00,,---,0.00,VWS V14.01,2013-01-27 06:03:00,
2013-01-27 00:04:00,33.8,24.7,29.32,NW,320,3.6,3.6,69,0.00,,---,0.00,VWS V14.01,2013-01-27 06:04:00,
2013-01-27 00:05:00,33.8,24.7,29.32,NNW,348,4.0,4.9,69,0.00,,---,0.00,VWS V14.01,2013-01-27 06:05:00,
2013-01-27 00:06:00,33.8,25.1,29.32,NNW,328,4.9,4.9,70,0.00,,---,0.00,VWS V14.01,2013-01-27 06:06:00,
2013-01-27 00:07:00,33.8,25.1,29.32,NNW,328,4.9,4.9,70,0.00,,---,0.00,VWS V14.01,2013-01-27 06:07:00,
2013-01-27 00:08:00,33.8,25.1,29.32,NNW,328,4.9,4.9,70,0.00,,---,0.00,VWS V14.01,2013-01-27 06:08:00,
2013-01-27 00:09:00,33.8,25.1,29.32,NNW,337,4.9,4.9,70,0.00,,---,0.00,VWS V14.01,2013-01-27 06:09:00,
2013-01-27 00:10:00,33.8,25.1,29.32,WNW,301,3.6,4.9,70,0.00,,---,0.00,VWS V14.01,2013-01-27 06:10:00,
2013-01-27 00:11:00,33.8,25.1,29.32,WNW,301,3.6,3.6,70,0.00,,---,0.00,VWS V14.01,2013-01-27 06:11:00,
2013-01-27 00:12:00,33.8,25.1,29.32,NNW,327,4.0,4.0,70,0.00,,---,0.00,VWS V14.01,2013-01-27 06:12:00,
2013-01-27 00:13:00,33.8,25.1,29.32,NNW,327,4.0,4.0,70,0.00,,---,0.00,VWS V14.01,2013-01-27 06:13:00,
2013-01-27 00:14:00,33.8,25.1,29.32,NNW,327,4.9,5.4,70,0.00,,---,0.00,VWS V14.01,2013-01-27 06:14:00,
2013-01-27 00:15:00,33.8,25.1,29.32,NNW,327,4.9,4.9,70,0.00,,---,0.00,VWS V14.01,2013-01-27 06:15:00,
2013-01-27 00:16:00,33.8,25.1,29.32,NNW,327,4.9,4.9,70,0.00,,---,0.00,VWS V14.01,2013-01-27 06:16:00,
2013-01-27 00:17:00,33.8,25.1,29.32,NNW,346,3.6,4.9,70,0.00,,---,0.00,VWS V14.01,2013-01-27 06:17:00,
2013-01-27 00:18:00,33.8,25.1,29.32,NNW,346,3.6,3.6,70,0.00,,---,0.00,VWS V14.01,2013-01-27 06:18:00,
2013-01-27 00:19:00,33.8,25.1,29.32,NNW,343,3.1,3.1,70,0.00,,---,0.00,VWS V14.01,2013-01-27 06:19:00,
2013-01-27 00:20:00,33.8,25.1,29.32,NNW,343,0.0,0.0,70,0.00,,---,0.00,VWS V14.01,2013-01-27 06:20:00,
2013-01-27 00:21:00,33.8,25.1,29.32,NNW,332,0.0,0.0,70,0.00,,---,0.00,VWS V14.01,2013-01-27 06:21:00,
2013-01-27 00:22:00,33.8,25.1,29.32,NNW,332,0.0,0.0,70,0.00,,---,0.00,VWS V14.01,2013-01-27 06:22:00,
2013-01-27 00:23:00,33.8,25.1,29.32,NNW,332,0.0,0.0,70,0.00,,---,0.00,VWS V14.01,2013-01-27 06:23:00,
2013-01-27 00:24:00,33.8,25.1,29.32,NNW,332,0.0,0.0,70,0.00,,---,0.00,VWS V14.01,2013-01-27 06:24:00,
2013-01-27 00:25:00,33.6,24.9,29.32,NNW,332,2.2,2.2,70,0.00,,---,0.00,VWS V14.01,2013-01-27 06:25:00,
2013-01-27 00:26:00,33.6,24.9,29.32,NNW,332,0.0,2.2,70,0.00,,---,0.00,VWS V14.01,2013-01-27 06:26:00,
2013-01-27 00:27:00,33.6,24.9,29.32,NNW,332,0.0,0.0,70,0.00,,---,0.00,VWS V14.01,2013-01-27 06:27:00,
2013-01-27 00:28:00,33.6,24.9,29.32,NNW,332,0.0,0.0,70,0.00,,---,0.00,VWS V14.01,2013-01-27 06:28:00,
2013-01-27 00:29:00,33.6,24.9,29.32,NNW,332,0.0,0.0,70,0.00,,---,0.00,VWS V14.01,2013-01-27 06:29:00,
2013-01-27 00:30:00,33.6,24.9,29.32,NNW,332,0.0,0.0,70,0.00,,---,0.00,VWS V14.01,2013-01-27 06:30:00,
2013-01-27 00:31:00,33.6,24.9,29.32,NNW,332,2.7,2.7,70,0.00,,---,0.00,VWS V14.01,2013-01-27 06:31:00,
2013-01-27 00:32:00,33.6,24.9,29.32,NNW,332,2.7,2.7,70,0.00,,---,0.00,VWS V14.01,2013-01-27 06:32:00,
2013-01-27 00:33:00,33.6,24.9,29.32,NNW,332,2.7,2.7,70,0.00,,---,0.00,VWS V14.01,2013-01-27 06:33:00,
2013-01-27 00:34:00,33.6,24.9,29.32,NNW,332,2.7,2.7,70,0.00,,---,0.00,VWS V14.01,2013-01-27 06:34:00,
2013-01-27 00:35:00,33.6,24.9,29.32,NNW,332,2.7,2.7,70,0.00,,---,0.00,VWS V14.01,2013-01-27 06:35:00,
2013-01-27 00:36:00,33.6,24.9,29.32,NNW,332,2.7,2.7,70,0.00,,---,0.00,VWS V14.01,2013-01-27 06:36:00,
2013-01-27 00:37:00,33.6,24.9,29.32,NW,318,0.0,2.7,70,0.00,,---,0.00,VWS V14.01,2013-01-27 06:37:00,
2013-01-27 00:38:00,33.6,24.9,29.32,NW,318,0.0,2.7,70,0.00,,---,0.00,VWS V14.01,2013-01-27 06:38:00,
2013-01-27 00:39:00,33.6,24.9,29.32,NW,318,0.0,0.0,70,0.00,,---,0.00,VWS V14.01,2013-01-27 06:39:00,
2013-01-27 00:40:00,33.6,24.9,29.32,NW,324,2.2,3.1,70,0.00,,---,0.00,VWS V14.01,2013-01-27 06:40:00,
2013-01-27 00:41:00,33.6,24.9,29.32,NNW,337,3.1,3.1,70,0.00,,---,0.00,VWS V14.01,2013-01-27 06:41:00,
2013-01-27 00:42:00,33.6,24.9,29.32,NNW,337,3.1,3.1,70,0.00,,---,0.00,VWS V14.01,2013-01-27 06:42:00,
2013-01-27 00:43:00,33.4,24.4,29.32,NNW,337,3.1,3.1,69,0.00,,---,0.00,VWS V14.01,2013-01-27 06:43:00,
2013-01-27 00:44:00,33.4,24.4,29.32,NNW,345,2.7,2.7,69,0.00,,---,0.00,VWS V14.01,2013-01-27 06:44:00,
2013-01-27 00:45:00,33.4,24.4,29.32,NNW,345,2.7,2.7,69,0.00,,---,0.00,VWS V14.01,2013-01-27 06:45:00,
2013-01-27 00:46:00,33.4,24.4,29.32,NNW,345,2.7,2.7,69,0.00,,---,0.00,VWS V14.01,2013-01-27 06:46:00,
2013-01-27 00:47:00,33.4,24.4,29.32,NW,317,2.7,2.7,69,0.00,,---,0.00,VWS V14.01,2013-01-27 06:47:00,
2013-01-27 00:48:00,33.4,24.4,29.32,NW,317,2.7,2.7,69,0.00,,---,0.00,VWS V14.01,2013-01-27 06:48:00,
2013-01-27 00:49:00,33.3,24.2,29.32,NW,317,2.7,2.7,69,0.00,,---,0.00,VWS V14.01,2013-01-27 06:49:00,
2013-01-27 00:50:00,33.3,24.2,29.32,NW,317,2.7,2.7,69,0.00,,---,0.00,VWS V14.01,2013-01-27 06:50:00,
2013-01-27 00:51:00,33.3,24.2,29.32,NNW,334,3.1,3.1,69,0.00,,---,0.00,VWS V14.01,2013-01-27 06:51:00,
2013-01-27 00:52:00,33.3,24.2,29.32,NNW,334,2.7,3.1,69,0.00,,---,0.00,VWS V14.01,2013-01-27 06:52:00,
2013-01-27 00:53:00,33.3,24.2,29.32,NNW,343,3.6,3.6,69,0.00,,---,0.00,VWS V14.01,2013-01-27 06:53:00,
2013-01-27 00:54:00,33.3,24.2,29.32,NNW,343,3.6,3.6,69,0.00,,---,0.00,VWS V14.01,2013-01-27 06:54:00,
2013-01-27 00:55:00,33.3,24.2,29.32,NNW,331,0.0,3.6,69,0.00,,---,0.00,VWS V14.01,2013-01-27 06:55:00,
2013-01-27 00:56:00,33.3,24.2,29.32,NW,324,2.7,2.7,69,0.00,,---,0.00,VWS V14.01,2013-01-27 06:56:00,
2013-01-27 00:57:00,33.3,24.2,29.32,NNW,340,2.7,2.7,69,0.00,,---,0.00,VWS V14.01,2013-01-27 06:57:00,
2013-01-27 00:58:00,33.3,24.2,29.32,NNW,340,2.7,2.7,69,0.00,,---,0.00,VWS V14.01,2013-01-27 06:58:00,
2013-01-27 00:59:00,33.3,24.2,29.32,NNW,340,2.7,2.7,69,0.00,,---,0.00,VWS V14.01,2013-01-27 06:59:00,
2013-01-27 01:00:00,33.3,24.2,29.32,North,350,0.0,0.0,69,0.00,,---,0.00,VWS V14.01,2013-01-27 07:00:00,
2013-01-27 01:01:00,33.3,24.2,29.32,North,357,2.7,2.7,69,0.00,,---,0.00,VWS V14.01,2013-01-27 07:01:00,
2013-01-27 01:02:00,33.3,24.2,29.32,North,357,2.7,2.7,69,0.00,,---,0.00,VWS V14.01,2013-01-27 07:02:00,
2013-01-27 01:03:00,33.3,24.2,29.32,North,357,2.7,2.7,69,0.00,,---,0.00,VWS V14.01,2013-01-27 07:03:00,
2013-01-27 01:04:00,33.3,24.2,29.32,NNW,346,3.1,3.1,69,0.00,,---,0.00,VWS V14.01,2013-01-27 07:04:00,
2013-01-27 01:05:00,33.3,24.2,29.32,NNW,346,3.1,3.1,69,0.00,,---,0.00,VWS V14.01,2013-01-27 07:05:00,
2013-01-27 01:06:00,33.3,24.2,29.32,NNW,340,2.7,3.1,69,0.00,,---,0.00,VWS V14.01,2013-01-27 07:06:00,
2013-01-27 01:07:00,33.3,24.2,29.32,NNW,340,2.2,2.7,69,0.00,,---,0.00,VWS V14.01,2013-01-27 07:07:00,
2013-01-27 01:08:00,33.3,24.2,29.32,NNW,335,3.6,3.6,69,0.00,,---,0.00,VWS V14.01,2013-01-27 07:08:00,
2013-01-27 01:09:00,33.3,24.2,29.32,NNW,339,3.1,3.1,69,0.00,,---,0.00,VWS V14.01,2013-01-27 07:09:00,
2013-01-27 01:10:00,33.3,24.2,29.32,NW,322,2.2,3.1,69,0.00,,---,0.00,VWS V14.01,2013-01-27 07:10:00,
2013-01-27 01:11:00,33.3,24.2,29.32,NW,324,2.2,2.2,69,0.00,,---,0.00,VWS V14.01,2013-01-27 07:11:00,
2013-01-27 01:12:00,33.3,24.2,29.32,NW,324,2.2,2.2,69,0.00,,---,0.00,VWS V14.01,2013-01-27 07:12:00,
2013-01-27 01:13:00,33.3,24.2,29.32,NW,324,2.2,2.2,69,0.00,,---,0.00,VWS V14.01,2013-01-27 07:13:00,
2013-01-27 01:14:00,33.3,24.2,29.32,NNW,329,2.7,2.7,69,0.00,,---,0.00,VWS V14.01,2013-01-27 07:14:00,
2013-01-27 01:15:00,33.3,24.2,29.32,NNW,332,3.1,3.1,69,0.00,,---,0.00,VWS V14.01,2013-01-27 07:15:00,
2013-01-27 01:16:00,33.3,24.2,29.32,NNW,333,2.7,3.1,69,0.00,,---,0.00,VWS V14.01,2013-01-27 07:16:00,
2013-01-27 01:17:00,33.3,24.2,29.32,North,357,2.2,2.7,69,0.00,,---,0.00,VWS V14.01,2013-01-27 07:17:00,
2013-01-27 01:18:00,33.3,24.2,29.32,North,357,2.2,2.2,69,0.00,,---,0.00,VWS V14.01,2013-01-27 07:18:00,
2013-01-27 01:19:00,33.3,24.2,29.32,North,357,2.2,2.2,69,0.00,,---,0.00,VWS V14.01,2013-01-27 07:19:00,
2013-01-27 01:20:00,33.3,24.5,29.32,North,357,2.2,2.2,70,0.00,,---,0.00,VWS V14.01,2013-01-27 07:20:00,
2013-01-27 01:21:00,33.3,24.5,29.32,North,357,2.2,2.2,70,0.00,,---,0.00,VWS V14.01,2013-01-27 07:21:00,
2013-01-27 01:22:00,33.3,24.5,29.32,NNE,15,0.0,2.2,70,0.00,,---,0.00,VWS V14.01,2013-01-27 07:22:00,
2013-01-27 01:23:00,33.3,24.5,29.32,NNW,335,4.0,4.0,70,0.00,,---,0.00,VWS V14.01,2013-01-27 07:23:00,
2013-01-27 01:24:00,33.3,24.5,29.32,NNW,335,4.0,4.0,70,0.00,,---,0.00,VWS V14.01,2013-01-27 07:24:00,
2013-01-27 01:25:00,33.3,24.5,29.32,NNW,331,2.7,4.0,70,0.00,,---,0.00,VWS V14.01,2013-01-27 07:25:00,
2013-01-27 01:26:00,33.3,24.5,29.32,NNW,331,2.7,2.7,70,0.00,,---,0.00,VWS V14.01,2013-01-27 07:26:00,
2013-01-27 01:27:00,33.3,24.5,29.32,NNW,338,2.7,2.7,70,0.00,,---,0.00,VWS V14.01,2013-01-27 07:27:00,
2013-01-27 01:28:00,33.3,24.5,29.32,North,2,2.7,2.7,70,0.00,,---,0.00,VWS V14.01,2013-01-27 07:28:00,
2013-01-27 01:29:00,33.3,24.5,29.32,North,2,2.7,2.7,70,0.00,,---,0.00,VWS V14.01,2013-01-27 07:29:00,
2013-01-27 01:30:00,33.3,24.5,29.32,North,353,2.7,2.7,70,0.00,,---,0.00,VWS V14.01,2013-01-27 07:30:00,
2013-01-27 01:31:00,33.3,24.5,29.32,North,353,2.7,2.7,70,0.00,,---,0.00,VWS V14.01,2013-01-27 07:31:00,
2013-01-27 01:32:00,33.3,24.5,29.32,North,353,2.7,2.7,70,0.00,,---,0.00,VWS V14.01,2013-01-27 07:32:00,
2013-01-27 01:33:00,33.3,24.5,29.32,North,353,2.7,2.7,70,0.00,,---,0.00,VWS V14.01,2013-01-27 07:33:00,
2013-01-27 01:34:00,33.3,24.5,29.32,NW,319,2.7,2.7,70,0.00,,---,0.00,VWS V14.01,2013-01-27 07:34:00,
2013-01-27 01:35:00,33.3,24.5,29.32,NNW,337,3.1,3.1,70,0.00,,---,0.00,VWS V14.01,2013-01-27 07:35:00,
2013-01-27 01:36:00,33.3,24.5,29.32,NNW,337,3.1,3.1,70,0.00,,---,0.00,VWS V14.01,2013-01-27 07:36:00,
2013-01-27 01:37:00,33.3,24.5,29.32,North,357,2.7,3.1,70,0.00,,---,0.00,VWS V14.01,2013-01-27 07:37:00,
2013-01-27 01:38:00,33.3,24.5,29.32,North,357,2.7,2.7,70,0.00,,---,0.00,VWS V14.01,2013-01-27 07:38:00,
2013-01-27 01:39:00,33.3,24.5,29.32,North,357,2.7,2.7,70,0.00,,---,0.00,VWS V14.01,2013-01-27 07:39:00,
2013-01-27 01:40:00,33.6,25.2,29.32,NNW,333,2.7,2.7,71,0.00,,---,0.00,VWS V14.01,2013-01-27 07:40:00,
2013-01-27 01:41:00,33.6,25.2,29.32,NNW,333,2.7,2.7,71,0.00,,---,0.00,VWS V14.01,2013-01-27 07:41:00,
2013-01-27 01:42:00,33.6,25.2,29.32,NNW,340,3.1,3.1,71,0.00,,---,0.00,VWS V14.01,2013-01-27 07:42:00,
2013-01-27 01:43:00,33.6,25.2,29.32,NNW,340,3.1,3.1,71,0.00,,---,0.00,VWS V14.01,2013-01-27 07:43:00,
2013-01-27 01:44:00,33.6,25.2,29.32,NNW,340,3.1,3.1,71,0.00,,---,0.00,VWS V14.01,2013-01-27 07:44:00,
2013-01-27 01:45:00,33.6,25.2,29.32,NNW,340,3.1,3.1,71,0.00,,---,0.00,VWS V14.01,2013-01-27 07:45:00,
2013-01-27 01:46:00,33.8,25.4,29.32,NNW,343,3.1,3.1,71,0.00,,---,0.00,VWS V14.01,2013-01-27 07:46:00,
2013-01-27 01:47:00,33.8,25.4,29.32,NNW,343,3.1,3.1,71,0.00,,---,0.00,VWS V14.01,2013-01-27 07:47:00,
2013-01-27 01:48:00,33.8,25.4,29.32,NW,326,3.6,3.6,71,0.00,,---,0.00,VWS V14.01,2013-01-27 07:48:00,
2013-01-27 01:49:00,33.8,25.4,29.32,NW,326,3.6,3.6,71,0.00,,---,0.00,VWS V14.01,2013-01-27 07:49:00,
2013-01-27 01:50:00,33.8,25.4,29.32,NNW,334,3.1,3.6,71,0.00,,---,0.00,VWS V14.01,2013-01-27 07:50:00,
2013-01-27 01:51:00,33.8,25.4,29.32,NNW,346,3.1,3.1,71,0.00,,---,0.00,VWS V14.01,2013-01-27 07:51:00,
2013-01-27 01:52:00,33.8,25.4,29.32,NNW,342,2.7,3.1,71,0.00,,---,0.00,VWS V14.01,2013-01-27 07:52:00,
2013-01-27 01:53:00,33.8,25.4,29.32,North,357,3.1,3.1,71,0.00,,---,0.00,VWS V14.01,2013-01-27 07:53:00,
2013-01-27 01:54:00,33.8,25.4,29.32,North,3,3.1,3.1,71,0.00,,---,0.00,VWS V14.01,2013-01-27 07:54:00,
2013-01-27 01:55:00,34.0,25.9,29.32,North,3,3.1,3.1,72,0.00,,---,0.00,VWS V14.01,2013-01-27 07:55:00,
2013-01-27 01:56:00,34.0,25.9,29.32,North,3,3.1,3.1,72,0.00,,---,0.00,VWS V14.01,2013-01-27 07:56:00,
2013-01-27 01:57:00,34.0,25.9,29.32,North,357,3.1,3.1,72,0.00,,---,0.00,VWS V14.01,2013-01-27 07:57:00,
2013-01-27 01:58:00,34.0,25.9,29.32,North,357,4.0,4.0,72,0.00,,---,0.00,VWS V14.01,2013-01-27 07:58:00,
2013-01-27 01:59:00,34.0,25.9,29.32,North,357,4.0,4.0,72,0.00,,---,0.00,VWS V14.01,2013-01-27 07:59:00,
2013-01-27 02:00:00,34.0,25.9,29.32,North,2,3.6,4.0,72,0.00,,---,0.00,VWS V14.01,2013-01-27 08:00:00,
2013-01-27 02:01:00,34.0,25.9,29.32,North,2,2.7,3.6,72,0.00,,---,0.00,VWS V14.01,2013-01-27 08:01:00,
2013-01-27 02:02:00,34.0,25.9,29.32,North,357,3.6,4.0,72,0.00,,---,0.00,VWS V14.01,2013-01-27 08:02:00,
2013-01-27 02:03:00,34.0,25.9,29.32,North,357,3.6,3.6,72,0.00,,---,0.00,VWS V14.01,2013-01-27 08:03:00,
2013-01-27 02:04:00,34.0,25.9,29.32,NNW,334,2.2,3.6,72,0.00,,---,0.00,VWS V14.01,2013-01-27 08:04:00,
2013-01-27 02:05:00,34.0,25.9,29.32,NNW,334,2.2,2.2,72,0.00,,---,0.00,VWS V14.01,2013-01-27 08:05:00,
2013-01-27 02:06:00,34.0,25.9,29.32,North,357,2.7,2.7,72,0.00,,---,0.00,VWS V14.01,2013-01-27 08:06:00,
2013-01-27 02:07:00,34.0,25.9,29.32,North,357,2.7,2.7,72,0.00,,---,0.00,VWS V14.01,2013-01-27 08:07:00,
2013-01-27 02:08:00,34.0,25.9,29.32,North,357,2.2,2.7,72,0.00,,---,0.00,VWS V14.01,2013-01-27 08:08:00,
2013-01-27 02:09:00,34.0,25.9,29.32,North,357,2.2,2.2,72,0.00,,---,0.00,VWS V14.01,2013-01-27 08:09:00,
2013-01-27 02:10:00,34.0,25.9,29.32,NNE,13,4.0,4.0,72,0.00,,---,0.00,VWS V14.01,2013-01-27 08:10:00,
2013-01-27 02:11:00,34.0,25.9,29.32,North,9,3.1,4.0,72,0.00,,---,0.00,VWS V14.01,2013-01-27 08:11:00,
2013-01-27 02:12:00,34.0,25.9,29.32,NNW,328,2.2,3.1,72,0.00,,---,0.00,VWS V14.01,2013-01-27 08:12:00,
2013-01-27 02:13:00,34.0,25.9,29.32,NNW,328,2.2,2.2,72,0.00,,---,0.00,VWS V14.01,2013-01-27 08:13:00,
2013-01-27 02:14:00,34.0,25.9,29.32,North,1,0.0,2.2,72,0.00,,---,0.00,VWS V14.01,2013-01-27 08:14:00,
2013-01-27 02:15:00,34.0,25.9,29.32,North,1,0.0,0.0,72,0.00,,---,0.00,VWS V14.01,2013-01-27 08:15:00,
2013-01-27 02:16:00,34.0,25.9,29.32,NNW,342,4.0,4.0,72,0.00,,---,0.00,VWS V14.01,2013-01-27 08:16:00,
2013-01-27 02:17:00,34.0,25.9,29.32,NNW,342,4.0,4.0,72,0.00,,---,0.00,VWS V14.01,2013-01-27 08:17:00,
2013-01-27 02:18:00,34.0,25.9,29.32,NNW,332,3.6,4.9,72,0.00,,---,0.00,VWS V14.01,2013-01-27 08:18:00,
2013-01-27 02:19:00,34.0,25.9,29.32,NNW,327,2.7,3.6,72,0.00,,---,0.00,VWS V14.01,2013-01-27 08:19:00,
2013-01-27 02:20:00,34.0,25.9,29.32,NNW,327,2.7,2.7,72,0.00,,---,0.00,VWS V14.01,2013-01-27 08:20:00,
2013-01-27 02:21:00,34.0,25.9,29.32,North,0,2.7,2.7,72,0.00,,---,0.00,VWS V14.01,2013-01-27 08:21:00,
2013-01-27 02:22:00,33.8,25.8,29.32,NW,324,2.7,2.7,72,0.00,,---,0.00,VWS V14.01,2013-01-27 08:22:00,
2013-01-27 02:23:00,33.8,25.8,29.32,NW,324,2.7,2.7,72,0.00,,---,0.00,VWS V14.01,2013-01-27 08:23:00,
2013-01-27 02:24:00,33.8,25.7,29.32,NNW,341,4.0,4.0,72,0.00,,---,0.00,VWS V14.01,2013-01-27 08:24:00,
2013-01-27 02:25:00,33.8,25.7,29.32,NNW,348,4.0,4.0,72,0.00,,---,0.00,VWS V14.01,2013-01-27 08:25:00,
2013-01-27 02:26:00,33.8,25.8,29.32,NW,322,3.6,4.0,72,0.00,,---,0.00,VWS V14.01,2013-01-27 08:26:00,
2013-01-27 02:27:00,33.8,25.4,29.32,NNW,345,4.0,4.0,71,0.00,,---,0.00,VWS V14.01,2013-01-27 08:27:00,
2013-01-27 02:28:00,33.8,25.4,29.32,North,4,3.6,4.0,71,0.00,,---,0.00,VWS V14.01,2013-01-27 08:28:00,
2013-01-27 02:29:00,33.8,25.4,29.32,North,4,3.6,3.6,71,0.00,,---,0.00,VWS V14.01,2013-01-27 08:29:00,
2013-01-27 02:30:00,33.8,25.4,29.32,North,357,2.7,3.6,71,0.00,,---,0.00,VWS V14.01,2013-01-27 08:30:00,
2013-01-27 02:31:00,33.8,25.4,29.32,North,357,2.7,2.7,71,0.00,,---,0.00,VWS V14.01,2013-01-27 08:31:00,
2013-01-27 02:32:00,33.6,25.6,29.32,North,357,2.7,2.7,72,0.00,,---,0.00,VWS V14.01,2013-01-27 08:32:00,
2013-01-27 02:33:00,33.6,25.6,29.32,North,357,2.7,2.7,72,0.00,,---,0.00,VWS V14.01,2013-01-27 08:33:00,
2013-01-27 02:34:00,33.6,25.6,29.32,NNW,342,0.0,0.0,72,0.00,,---,0.00,VWS V14.01,2013-01-27 08:34:00,
2013-01-27 02:35:00,33.6,25.6,29.32,NNW,342,0.0,0.0,72,0.00,,---,0.00,VWS V14.01,2013-01-27 08:35:00,
2013-01-27 02:36:00,33.6,25.6,29.32,NNW,342,0.0,0.0,72,0.00,,---,0.00,VWS V14.01,2013-01-27 08:36:00,
2013-01-27 02:37:00,33.6,25.6,29.32,NNW,342,0.0,0.0,72,0.00,,---,0.00,VWS V14.01,2013-01-27 08:37:00,
2013-01-27 02:38:00,33.6,25.6,29.32,NNW,342,0.0,0.0,72,0.00,,---,0.00,VWS V14.01,2013-01-27 08:38:00,
2013-01-27 02:39:00,33.6,25.6,29.32,NNW,342,0.0,0.0,72,0.00,,---,0.00,VWS V14.01,2013-01-27 08:39:00,
2013-01-27 02:40:00,33.6,25.6,29.32,NNW,342,0.0,0.0,72,0.00,,---,0.00,VWS V14.01,2013-01-27 08:40:00,
2013-01-27 02:41:00,33.6,25.6,29.32,North,353,3.6,3.6,72,0.00,,---,0.00,VWS V14.01,2013-01-27 08:41:00,
2013-01-27 02:42:00,33.6,25.6,29.32,North,353,3.6,3.6,72,0.00,,---,0.00,VWS V14.01,2013-01-27 08:42:00,
2013-01-27 02:43:00,33.6,25.6,29.32,North,353,3.6,3.6,72,0.00,,---,0.00,VWS V14.01,2013-01-27 08:43:00,
2013-01-27 02:44:00,33.6,25.6,29.32,NW,324,3.6,3.6,72,0.00,,---,0.00,VWS V14.01,2013-01-27 08:44:00,
2013-01-27 02:45:00,33.6,25.6,29.32,NW,318,4.9,4.9,72,0.00,,---,0.00,VWS V14.01,2013-01-27 08:45:00,
2013-01-27 02:46:00,33.6,25.6,29.32,NW,320,3.6,3.6,72,0.00,,---,0.00,VWS V14.01,2013-01-27 08:46:00,
2013-01-27 02:47:00,33.6,25.6,29.32,NNW,345,3.6,3.6,72,0.00,,---,0.00,VWS V14.01,2013-01-27 08:47:00,
2013-01-27 02:48:00,33.6,25.6,29.32,NNW,345,3.6,3.6,72,0.00,,---,0.00,VWS V14.01,2013-01-27 08:48:00,
2013-01-27 02:49:00,33.6,25.6,29.32,NNW,340,3.1,3.6,72,0.00,,---,0.00,VWS V14.01,2013-01-27 08:49:00,
2013-01-27 02:50:00,33.6,25.6,29.32,NNW,348,4.0,4.0,72,0.00,,---,0.00,VWS V14.01,2013-01-27 08:50:00,
2013-01-27 02:51:00,33.6,25.6,29.32,NNW,348,4.0,4.0,72,0.00,,---,0.00,VWS V14.01,2013-01-27 08:51:00,
2013-01-27 02:52:00,33.6,25.6,29.32,NNW,332,0.0,4.0,72,0.00,,---,0.00,VWS V14.01,2013-01-27 08:52:00,
2013-01-27 02:53:00,33.6,25.6,29.32,NNW,331,0.0,2.7,72,0.00,,---,0.00,VWS V14.01,2013-01-27 08:53:00,
2013-01-27 02:54:00,33.6,25.6,29.32,NNW,331,0.0,0.0,72,0.00,,---,0.00,VWS V14.01,2013-01-27 08:54:00,
2013-01-27 02:55:00,33.6,25.6,29.32,NNW,329,3.1,3.1,72,0.00,,---,0.00,VWS V14.01,2013-01-27 08:55:00,
2013-01-27 02:56:00,33.6,25.6,29.32,NNW,343,3.6,3.6,72,0.00,,---,0.00,VWS V14.01,2013-01-27 08:56:00,
2013-01-27 02:57:00,33.6,25.6,29.32,WNW,300,3.1,3.6,72,0.00,,---,0.00,VWS V14.01,2013-01-27 08:57:00,
2013-01-27 02:58:00,33.6,25.6,29.32,WNW,300,3.1,3.1,72,0.00,,---,0.00,VWS V14.01,2013-01-27 08:58:00,
2013-01-27 02:59:00,33.4,25.4,29.32,WNW,300,3.1,3.1,72,0.00,,---,0.00,VWS V14.01,2013-01-27 08:59:00,
2013-01-27 03:00:00,33.4,25.4,29.32,NNW,331,3.6,3.6,72,0.00,,---,0.00,VWS V14.01,2013-01-27 09:00:00,
2013-01-27 03:01:00,33.4,25.4,29.32,North,357,3.6,4.0,72,0.00,,---,0.00,VWS V14.01,2013-01-27 09:01:00,
2013-01-27 03:02:00,33.4,25.4,29.32,NW,319,4.0,4.0,72,0.00,,---,0.00,VWS V14.01,2013-01-27 09:02:00,
2013-01-27 03:03:00,33.4,25.4,29.32,NW,319,4.0,4.0,72,0.00,,---,0.00,VWS V14.01,2013-01-27 09:03:00,
2013-01-27 03:04:00,33.4,25.4,29.32,NNW,348,2.7,4.0,72,0.00,,---,0.00,VWS V14.01,2013-01-27 09:04:00,
2013-01-27 03:05:00,33.4,25.4,29.32,NNW,348,2.7,2.7,72,0.00,,---,0.00,VWS V14.01,2013-01-27 09:05:00,
2013-01-27 03:06:00,33.4,25.4,29.32,NNW,348,2.7,2.7,72,0.00,,---,0.00,VWS V14.01,2013-01-27 09:06:00,
2013-01-27 03:07:00,33.4,25.4,29.32,NNW,341,2.2,3.1,72,0.00,,---,0.00,VWS V14.01,2013-01-27 09:07:00,
2013-01-27 03:08:00,33.4,25.4,29.32,NNW,334,3.1,3.1,72,0.00,,---,0.00,VWS V14.01,2013-01-27 09:08:00,
2013-01-27 03:09:00,33.4,25.4,29.32,NNW,334,3.1,3.1,72,0.00,,---,0.00,VWS V14.01,2013-01-27 09:09:00,
2013-01-27 03:10:00,33.4,25.4,29.32,North,353,2.7,3.1,72,0.00,,---,0.00,VWS V14.01,2013-01-27 09:10:00,
2013-01-27 03:11:00,33.4,25.4,29.32,NNW,330,2.7,2.7,72,0.00,,---,0.00,VWS V14.01,2013-01-27 09:11:00,
2013-01-27 03:12:00,33.4,25.4,29.32,NNW,330,2.2,2.7,72,0.00,,---,0.00,VWS V14.01,2013-01-27 09:12:00,
2013-01-27 03:13:00,33.4,25.4,29.32,NNW,340,2.7,2.7,72,0.00,,---,0.00,VWS V14.01,2013-01-27 09:13:00,
2013-01-27 03:14:00,33.3,25.2,29.32,NNW,343,2.7,2.7,72,0.00,,---,0.00,VWS V14.01,2013-01-27 09:14:00,
2013-01-27 03:15:00,33.3,25.2,29.32,NNW,343,2.7,2.7,72,0.00,,---,0.00,VWS V14.01,2013-01-27 09:15:00,
2013-01-27 03:16:00,33.3,25.2,29.32,North,357,3.1,3.1,72,0.00,,---,0.00,VWS V14.01,2013-01-27 09:16:00,
2013-01-27 03:17:00,33.3,25.2,29.32,NNW,329,4.0,4.0,72,0.00,,---,0.00,VWS V14.01,2013-01-27 09:17:00,
2013-01-27 03:18:00,33.3,25.2,29.32,NNW,329,4.0,4.0,72,0.00,,---,0.00,VWS V14.01,2013-01-27 09:18:00,
2013-01-27 03:19:00,33.3,25.2,29.32,North,357,3.1,4.0,72,0.00,,---,0.00,VWS V14.01,2013-01-27 09:19:00,
2013-01-27 03:20:00,33.3,25.2,29.32,North,357,3.1,3.1,72,0.00,,---,0.00,VWS V14.01,2013-01-27 09:20:00,
2013-01-27 03:21:00,33.3,25.2,29.32,NNW,348,3.1,3.1,72,0.00,,---,0.00,VWS V14.01,2013-01-27 09:21:00,
2013-01-27 03:22:00,33.3,25.2,29.32,North,353,0.0,3.1,72,0.00,,---,0.00,VWS V14.01,2013-01-27 09:22:00,
2013-01-27 03:23:00,33.3,25.2,29.32,NNW,341,2.7,2.7,72,0.00,,---,0.00,VWS V14.01,2013-01-27 09:23:00,
2013-01-27 03:24:00,33.3,25.2,29.32,NNW,346,2.7,2.7,72,0.00,,---,0.00,VWS V14.01,2013-01-27 09:24:00,
2013-01-27 03:25:00,33.3,25.2,29.32,NNW,333,2.7,3.1,72,0.00,,---,0.00,VWS V14.01,2013-01-27 09:25:00,
2013-01-27 03:26:00,33.3,25.2,29.32,North,357,3.1,3.1,72,0.00,,---,0.00,VWS V14.01,2013-01-27 09:26:00,
2013-01-27 03:27:00,33.3,25.2,29.32,North,357,3.6,3.6,72,0.00,,---,0.00,VWS V14.01,2013-01-27 09:27:00,
2013-01-27 03:28:00,33.3,25.2,29.32,North,357,3.6,3.6,72,0.00,,---,0.00,VWS V14.01,2013-01-27 09:28:00,
2013-01-27 03:29:00,33.3,25.2,29.32,North,357,3.6,3.6,72,0.00,,---,0.00,VWS V14.01,2013-01-27 09:29:00,
2013-01-27 03:30:00,33.3,25.2,29.32,North,357,3.6,3.6,72,0.00,,---,0.00,VWS V14.01,2013-01-27 09:30:00,
2013-01-27 03:31:00,33.3,25.2,29.32,North,357,3.6,3.6,72,0.00,,---,0.00,VWS V14.01,2013-01-27 09:31:00,
2013-01-27 03:32:00,33.3,25.2,29.32,NNW,341,5.4,5.4,72,0.00,,---,0.00,VWS V14.01,2013-01-27 09:32:00,
2013-01-27 03:33:00,33.3,25.2,29.32,NNW,341,5.4,5.4,72,0.00,,---,0.00,VWS V14.01,2013-01-27 09:33:00,
2013-01-27 03:34:00,33.1,25.0,29.32,North,350,3.1,5.4,72,0.00,,---,0.00,VWS V14.01,2013-01-27 09:34:00,
2013-01-27 03:35:00,33.1,25.0,29.32,North,8,3.6,3.6,72,0.00,,---,0.00,VWS V14.01,2013-01-27 09:35:00,
2013-01-27 03:36:00,33.1,25.0,29.32,North,7,3.1,3.6,72,0.00,,---,0.00,VWS V14.01,2013-01-27 09:36:00,
2013-01-27 03:37:00,33.1,25.0,29.32,North,7,3.1,3.1,72,0.00,,---,0.00,VWS V14.01,2013-01-27 09:37:00,
2013-01-27 03:38:00,33.1,25.0,29.32,North,357,2.7,2.7,72,0.00,,---,0.00,VWS V14.01,2013-01-27 09:38:00,
2013-01-27 03:39:00,33.1,25.0,29.32,North,357,2.7,2.7,72,0.00,,---,0.00,VWS V14.01,2013-01-27 09:39:00,
2013-01-27 03:40:00,33.1,25.0,29.32,North,357,2.7,2.7,72,0.00,,---,0.00,VWS V14.01,2013-01-27 09:40:00,
2013-01-27 03:41:00,33.1,25.0,29.32,North,357,2.7,2.7,72,0.00,,---,0.00,VWS V14.01,2013-01-27 09:41:00,
2013-01-27 03:42:00,33.1,25.0,29.32,North,357,2.7,2.7,72,0.00,,---,0.00,VWS V14.01,2013-01-27 09:42:00,
2013-01-27 03:43:00,33.1,25.0,29.32,North,353,0.0,0.0,72,0.00,,---,0.00,VWS V14.01,2013-01-27 09:43:00,
2013-01-27 03:44:00,33.1,25.0,29.32,North,353,0.0,0.0,72,0.00,,---,0.00,VWS V14.01,2013-01-27 09:44:00,
2013-01-27 03:45:00,33.1,25.0,29.32,North,353,0.0,0.0,72,0.00,,---,0.00,VWS V14.01,2013-01-27 09:45:00,
2013-01-27 03:46:00,33.1,25.0,29.32,North,353,0.0,0.0,72,0.00,,---,0.00,VWS V14.01,2013-01-27 09:46:00,
2013-01-27 03:47:00,33.1,25.0,29.32,NW,319,2.7,3.1,72,0.00,,---,0.00,VWS V14.01,2013-01-27 09:47:00,
2013-01-27 03:48:00,33.1,25.0,29.32,North,2,4.0,4.0,72,0.00,,---,0.00,VWS V14.01,2013-01-27 09:48:00,
2013-01-27 03:49:00,33.1,25.0,29.32,North,2,4.0,4.0,72,0.00,,---,0.00,VWS V14.01,2013-01-27 09:49:00,
2013-01-27 03:50:00,32.9,24.9,29.32,North,2,4.0,4.0,72,0.00,,---,0.00,VWS V14.01,2013-01-27 09:50:00,
2013-01-27 03:51:00,32.9,24.9,29.32,North,2,4.0,4.0,72,0.00,,---,0.00,VWS V14.01,2013-01-27 09:51:00,
2013-01-27 03:52:00,32.9,24.9,29.32,North,2,4.0,4.0,72,0.00,,---,0.00,VWS V14.01,2013-01-27 09:52:00,
2013-01-27 03:53:00,32.9,24.9,29.32,North,2,4.0,4.0,72,0.00,,---,0.00,VWS V14.01,2013-01-27 09:53:00,
2013-01-27 03:54:00,32.9,24.9,29.32,North,357,0.0,4.0,72,0.00,,---,0.00,VWS V14.01,2013-01-27 09:54:00,
2013-01-27 03:55:00,32.9,24.9,29.32,North,357,2.7,2.7,72,0.00,,---,0.00,VWS V14.01,2013-01-27 09:55:00,
2013-01-27 03:56:00,32.9,24.9,29.32,North,357,2.7,2.7,72,0.00,,---,0.00,VWS V14.01,2013-01-27 09:56:00,
2013-01-27 03:57:00,32.9,24.9,29.32,North,357,2.7,2.7,72,0.00,,---,0.00,VWS V14.01,2013-01-27 09:57:00,
2013-01-27 03:58:00,32.9,24.9,29.32,North,357,2.7,2.7,72,0.00,,---,0.00,VWS V14.01,2013-01-27 09:58:00,
2013-01-27 03:59:00,32.7,24.4,29.32,North,357,2.7,2.7,71,0.00,,---,0.00,VWS V14.01,2013-01-27 09:59:00,
2013-01-27 04:00:00,32.7,24.4,29.32,North,353,2.2,2.2,71,0.00,,---,0.00,VWS V14.01,2013-01-27 10:00:00,
2013-01-27 04:01:00,32.7,24.4,29.32,North,353,2.2,2.2,71,0.00,,---,0.00,VWS V14.01,2013-01-27 10:01:00,
2013-01-27 04:02:00,32.7,24.4,29.32,NW,323,2.7,2.7,71,0.00,,---,0.00,VWS V14.01,2013-01-27 10:02:00,
2013-01-27 04:03:00,32.7,24.4,29.32,NNW,335,2.7,2.7,71,0.00,,---,0.00,VWS V14.01,2013-01-27 10:03:00,
2013-01-27 04:04:00,32.7,24.4,29.32,NNW,331,4.9,5.4,71,0.00,,---,0.00,VWS V14.01,2013-01-27 10:04:00,
2013-01-27 04:05:00,32.7,24.4,29.32,NNW,337,3.6,3.6,71,0.00,,---,0.00,VWS V14.01,2013-01-27 10:05:00,
2013-01-27 04:06:00,32.7,24.4,29.32,NNW,337,3.6,3.6,71,0.00,,---,0.00,VWS V14.01,2013-01-27 10:06:00,
2013-01-27 04:07:00,32.7,24.4,29.32,North,357,3.1,3.6,71,0.00,,---,0.00,VWS V14.01,2013-01-27 10:07:00,
2013-01-27 04:08:00,32.7,24.4,29.32,North,357,3.1,3.1,71,0.00,,---,0.00,VWS V14.01,2013-01-27 10:08:00,
2013-01-27 04:09:00,32.7,24.4,29.32,NNW,345,3.1,3.1,71,0.00,,---,0.00,VWS V14.01,2013-01-27 10:09:00,
2013-01-27 04:10:00,32.7,24.4,29.32,NNW,345,3.1,3.1,71,0.00,,---,0.00,VWS V14.01,2013-01-27 10:10:00,
2013-01-27 04:11:00,32.7,24.4,29.32,NNW,346,0.0,3.1,71,0.00,,---,0.00,VWS V14.01,2013-01-27 10:11:00,
2013-01-27 04:12:00,32.7,24.4,29.32,NNW,346,0.0,0.0,71,0.00,,---,0.00,VWS V14.01,2013-01-27 10:12:00,
2013-01-27 04:13:00,32.7,24.4,29.32,North,350,2.7,2.7,71,0.00,,---,0.00,VWS V14.01,2013-01-27 10:13:00,
2013-01-27 04:14:00,32.7,24.4,29.32,North,350,2.7,2.7,71,0.00,,---,0.00,VWS V14.01,2013-01-27 10:14:00,
2013-01-27 04:15:00,32.7,24.4,29.32,North,350,0.0,2.7,71,0.00,,---,0.00,VWS V14.01,2013-01-27 10:15:00,
2013-01-27 04:16:00,32.7,24.4,29.32,North,350,0.0,0.0,71,0.00,,---,0.00,VWS V14.01,2013-01-27 10:16:00,
2013-01-27 04:17:00,32.7,24.4,29.32,North,350,0.0,0.0,71,0.00,,---,0.00,VWS V14.01,2013-01-27 10:17:00,
2013-01-27 04:18:00,32.7,24.4,29.32,North,357,4.0,4.0,71,0.00,,---,0.00,VWS V14.01,2013-01-27 10:18:00,
2013-01-27 04:19:00,32.7,24.4,29.32,North,357,4.0,4.0,71,0.00,,---,0.00,VWS V14.01,2013-01-27 10:19:00,
2013-01-27 04:20:00,32.7,24.4,29.32,North,353,2.7,4.0,71,0.00,,---,0.00,VWS V14.01,2013-01-27 10:20:00,
2013-01-27 04:21:00,32.7,24.4,29.32,North,353,0.0,2.7,71,0.00,,---,0.00,VWS V14.01,2013-01-27 10:21:00,
2013-01-27 04:22:00,32.7,24.4,29.32,North,353,0.0,2.7,71,0.00,,---,0.00,VWS V14.01,2013-01-27 10:22:00,
2013-01-27 04:23:00,32.7,24.4,29.32,North,353,2.2,2.2,71,0.00,,---,0.00,VWS V14.01,2013-01-27 10:23:00,
2013-01-27 04:24:00,32.7,24.4,29.32,North,353,3.1,3.1,71,0.00,,---,0.00,VWS V14.01,2013-01-27 10:24:00,
2013-01-27 04:25:00,32.7,24.4,29.32,North,353,3.1,3.1,71,0.00,,---,0.00,VWS V14.01,2013-01-27 10:25:00,
2013-01-27 04:26:00,32.7,24.4,29.32,North,353,3.1,3.1,71,0.00,,---,0.00,VWS V14.01,2013-01-27 10:26:00,
2013-01-27 04:27:00,32.7,24.4,29.32,North,353,3.1,3.1,71,0.00,,---,0.00,VWS V14.01,2013-01-27 10:27:00,
2013-01-27 04:28:00,32.7,24.4,29.32,North,353,3.1,3.1,71,0.00,,---,0.00,VWS V14.01,2013-01-27 10:28:00,
2013-01-27 04:29:00,32.7,24.4,29.32,North,349,3.6,3.6,71,0.00,,---,0.00,VWS V14.01,2013-01-27 10:29:00,
2013-01-27 04:30:00,32.7,24.4,29.32,North,349,3.6,3.6,71,0.00,,---,0.00,VWS V14.01,2013-01-27 10:30:00,
2013-01-27 04:31:00,32.7,24.4,29.32,NNW,348,0.0,0.0,71,0.00,,---,0.00,VWS V14.01,2013-01-27 10:31:00,
2013-01-27 04:32:00,32.7,24.4,29.32,NNW,348,0.0,0.0,71,0.00,,---,0.00,VWS V14.01,2013-01-27 10:32:00,
2013-01-27 04:33:00,32.7,24.4,29.32,North,349,2.7,2.7,71,0.00,,---,0.00,VWS V14.01,2013-01-27 10:33:00,
2013-01-27 04:34:00,32.7,24.4,29.32,NNW,348,0.0,2.7,71,0.00,,---,0.00,VWS V14.01,2013-01-27 10:34:00,
2013-01-27 04:35:00,32.9,24.5,29.32,NNW,348,0.0,0.0,71,0.00,,---,0.00,VWS V14.01,2013-01-27 10:35:00,
2013-01-27 04:36:00,32.9,24.5,29.32,NNW,333,0.0,0.0,71,0.00,,---,0.00,VWS V14.01,2013-01-27 10:36:00,
2013-01-27 04:37:00,32.9,24.5,29.32,NNW,333,0.0,0.0,71,0.00,,---,0.00,VWS V14.01,2013-01-27 10:37:00,
2013-01-27 04:38:00,32.9,24.5,29.32,NNW,342,2.2,2.2,71,0.00,,---,0.00,VWS V14.01,2013-01-27 10:38:00,
2013-01-27 04:39:00,32.9,24.5,29.32,NNW,342,2.7,2.7,71,0.00,,---,0.00,VWS V14.01,2013-01-27 10:39:00,
2013-01-27 04:40:00,32.9,24.5,29.32,NNW,342,2.2,2.7,71,0.00,,---,0.00,VWS V14.01,2013-01-27 10:40:00,
2013-01-27 04:41:00,32.9,24.5,29.35,North,1,2.2,2.2,71,0.00,,---,0.00,VWS V14.01,2013-01-27 10:41:00,
2013-01-27 04:42:00,32.9,24.5,29.35,North,357,0.0,2.2,71,0.00,,---,0.00,VWS V14.01,2013-01-27 10:42:00,
2013-01-27 04:43:00,32.9,24.5,29.35,North,357,0.0,2.2,71,0.00,,---,0.00,VWS V14.01,2013-01-27 10:43:00,
2013-01-27 04:44:00,32.9,24.5,29.35,North,357,0.0,0.0,71,0.00,,---,0.00,VWS V14.01,2013-01-27 10:44:00,
2013-01-27 04:45:00,32.9,24.5,29.35,North,357,0.0,0.0,71,0.00,,---,0.00,VWS V14.01,2013-01-27 10:45:00,
2013-01-27 04:46:00,32.9,24.5,29.35,North,357,0.0,0.0,71,0.00,,---,0.00,VWS V14.01,2013-01-27 10:46:00,
2013-01-27 04:47:00,32.9,24.5,29.35,North,357,0.0,0.0,71,0.00,,---,0.00,VWS V14.01,2013-01-27 10:47:00,
2013-01-27 04:48:00,32.9,24.5,29.35,WSW,255,2.2,2.2,71,0.00,,---,0.00,VWS V14.01,2013-01-27 10:48:00,
2013-01-27 04:49:00,32.9,24.5,29.35,WSW,255,0.0,0.0,71,0.00,,---,0.00,VWS V14.01,2013-01-27 10:49:00,
2013-01-27 04:50:00,32.9,24.5,29.35,WSW,255,0.0,0.0,71,0.00,,---,0.00,VWS V14.01,2013-01-27 10:50:00,
2013-01-27 04:51:00,32.9,24.5,29.35,WSW,255,0.0,0.0,71,0.00,,---,0.00,VWS V14.01,2013-01-27 10:51:00,
2013-01-27 04:52:00,32.9,24.2,29.35,WSW,255,0.0,0.0,70,0.00,,---,0.00,VWS V14.01,2013-01-27 10:52:00,
2013-01-27 04:53:00,32.9,24.2,29.35,WSW,255,0.0,0.0,70,0.00,,---,0.00,VWS V14.01,2013-01-27 10:53:00,
2013-01-27 04:54:00,32.9,24.2,29.35,WSW,255,0.0,0.0,70,0.00,,---,0.00,VWS V14.01,2013-01-27 10:54:00,
2013-01-27 04:55:00,32.9,24.2,29.35,North,353,2.7,2.7,70,0.00,,---,0.00,VWS V14.01,2013-01-27 10:55:00,
2013-01-27 04:56:00,32.9,24.2,29.35,North,353,2.7,2.7,70,0.00,,---,0.00,VWS V14.01,2013-01-27 10:56:00,
2013-01-27 04:57:00,32.9,24.2,29.35,North,353,2.7,2.7,70,0.00,,---,0.00,VWS V14.01,2013-01-27 10:57:00,
2013-01-27 04:58:00,32.9,24.2,29.35,North,353,2.7,2.7,70,0.00,,---,0.00,VWS V14.01,2013-01-27 10:58:00,
2013-01-27 04:59:00,32.9,24.2,29.35,North,353,2.7,2.7,70,0.00,,---,0.00,VWS V14.01,2013-01-27 10:59:00,
2013-01-27 05:00:00,32.9,24.2,29.35,North,357,2.2,2.7,70,0.00,,---,0.00,VWS V14.01,2013-01-27 11:00:00,
2013-01-27 05:01:00,32.9,24.2,29.35,North,357,2.2,2.2,70,0.00,,---,0.00,VWS V14.01,2013-01-27 11:01:00,
2013-01-27 05:02:00,32.9,24.2,29.35,North,357,2.2,2.2,70,0.00,,---,0.00,VWS V14.01,2013-01-27 11:02:00,
2013-01-27 05:03:00,32.9,24.2,29.35,North,357,2.2,2.2,70,0.00,,---,0.00,VWS V14.01,2013-01-27 11:03:00,
2013-01-27 05:04:00,32.9,24.2,29.35,North,0,2.7,2.7,70,0.00,,---,0.00,VWS V14.01,2013-01-27 11:04:00,
2013-01-27 05:05:00,32.9,24.2,29.35,North,0,2.7,2.7,70,0.00,,---,0.00,VWS V14.01,2013-01-27 11:05:00,
2013-01-27 05:06:00,32.9,24.2,29.35,North,0,2.7,2.7,70,0.00,,---,0.00,VWS V14.01,2013-01-27 11:06:00,
2013-01-27 05:07:00,32.9,24.2,29.35,North,357,0.0,2.7,70,0.00,,---,0.00,VWS V14.01,2013-01-27 11:07:00,
2013-01-27 05:08:00,32.9,24.2,29.35,North,2,2.7,2.7,70,0.00,,---,0.00,VWS V14.01,2013-01-27 11:08:00,
2013-01-27 05:09:00,32.9,24.2,29.35,North,357,0.0,2.7,70,0.00,,---,0.00,VWS V14.01,2013-01-27 11:09:00,
2013-01-27 05:10:00,32.9,24.2,29.35,North,357,2.7,3.6,70,0.00,,---,0.00,VWS V14.01,2013-01-27 11:10:00,
2013-01-27 05:11:00,32.7,23.7,29.35,North,357,2.7,2.7,69,0.00,,---,0.00,VWS V14.01,2013-01-27 11:11:00,
2013-01-27 05:12:00,32.7,23.7,29.35,North,357,2.2,2.7,69,0.00,,---,0.00,VWS V14.01,2013-01-27 11:12:00,
2013-01-27 05:13:00,32.7,23.7,29.35,North,357,2.2,2.2,69,0.00,,---,0.00,VWS V14.01,2013-01-27 11:13:00,
2013-01-27 05:14:00,32.7,23.7,29.35,North,357,2.2,2.2,69,0.00,,---,0.00,VWS V14.01,2013-01-27 11:14:00,
2013-01-27 05:15:00,32.7,23.7,29.35,North,357,2.2,2.2,69,0.00,,---,0.00,VWS V14.01,2013-01-27 11:15:00,
2013-01-27 05:16:00,32.7,23.7,29.35,NNW,327,0.0,2.2,69,0.00,,---,0.00,VWS V14.01,2013-01-27 11:16:00,
2013-01-27 05:17:00,32.7,23.7,29.35,NNW,327,0.0,0.0,69,0.00,,---,0.00,VWS V14.01,2013-01-27 11:17:00,
2013-01-27 05:18:00,32.7,23.7,29.35,NNW,327,0.0,0.0,69,0.00,,---,0.00,VWS V14.01,2013-01-27 11:18:00,
2013-01-27 05:19:00,32.7,23.7,29.35,NNW,327,0.0,0.0,69,0.00,,---,0.00,VWS V14.01,2013-01-27 11:19:00,
2013-01-27 05:20:00,32.7,23.7,29.35,NW,306,3.1,3.1,69,0.00,,---,0.00,VWS V14.01,2013-01-27 11:20:00,
2013-01-27 05:21:00,32.7,23.7,29.35,NW,306,2.2,3.1,69,0.00,,---,0.00,VWS V14.01,2013-01-27 11:21:00,
2013-01-27 05:22:00,32.7,23.7,29.35,NW,306,2.2,2.2,69,0.00,,---,0.00,VWS V14.01,2013-01-27 11:22:00,
2013-01-27 05:23:00,32.7,23.7,29.35,NW,306,2.2,2.2,69,0.00,,---,0.00,VWS V14.01,2013-01-27 11:23:00,
2013-01-27 05:24:00,32.7,23.7,29.35,NW,306,2.2,2.2,69,0.00,,---,0.00,VWS V14.01,2013-01-27 11:24:00,
2013-01-27 05:25:00,32.7,23.7,29.35,NW,306,2.2,2.2,69,0.00,,---,0.00,VWS V14.01,2013-01-27 11:25:00,
2013-01-27 05:26:00,32.7,23.7,29.35,NW,306,2.2,2.2,69,0.00,,---,0.00,VWS V14.01,2013-01-27 11:26:00,
2013-01-27 05:27:00,32.7,23.7,29.35,NNW,334,2.7,2.7,69,0.00,,---,0.00,VWS V14.01,2013-01-27 11:27:00,
2013-01-27 05:28:00,32.7,23.7,29.35,NNW,335,0.0,2.7,69,0.00,,---,0.00,VWS V14.01,2013-01-27 11:28:00,
2013-01-27 05:29:00,32.7,23.7,29.35,NNW,335,0.0,0.0,69,0.00,,---,0.00,VWS V14.01,2013-01-27 11:29:00,
2013-01-27 05:30:00,32.7,23.7,29.35,NNW,335,0.0,0.0,69,0.00,,---,0.00,VWS V14.01,2013-01-27 11:30:00,
2013-01-27 05:31:00,32.7,23.7,29.35,NNW,335,0.0,0.0,69,0.00,,---,0.00,VWS V14.01,2013-01-27 11:31:00,
2013-01-27 05:32:00,32.7,23.7,29.35,NNW,335,0.0,0.0,69,0.00,,---,0.00,VWS V14.01,2013-01-27 11:32:00,
2013-01-27 05:33:00,32.7,23.7,29.35,NNW,335,2.2,2.2,69,0.00,,---,0.00,VWS V14.01,2013-01-27 11:33:00,
2013-01-27 05:34:00,32.7,23.7,29.35,NNW,335,0.0,2.2,69,0.00,,---,0.00,VWS V14.01,2013-01-27 11:34:00,
2013-01-27 05:35:00,32.7,23.7,29.35,NNW,335,0.0,0.0,69,0.00,,---,0.00,VWS V14.01,2013-01-27 11:35:00,
2013-01-27 05:36:00,32.5,23.2,29.35,NNW,335,0.0,0.0,68,0.00,,---,0.00,VWS V14.01,2013-01-27 11:36:00,
2013-01-27 05:37:00,32.5,23.2,29.35,NW,312,0.0,0.0,68,0.00,,---,0.00,VWS V14.01,2013-01-27 11:37:00,
2013-01-27 05:38:00,32.5,23.2,29.35,NW,312,0.0,0.0,68,0.00,,---,0.00,VWS V14.01,2013-01-27 11:38:00,
2013-01-27 05:39:00,32.5,23.2,29.35,NW,312,0.0,0.0,68,0.00,,---,0.00,VWS V14.01,2013-01-27 11:39:00,
2013-01-27 05:40:00,32.5,23.2,29.35,NW,312,0.0,0.0,68,0.00,,---,0.00,VWS V14.01,2013-01-27 11:40:00,
2013-01-27 05:41:00,32.7,23.3,29.35,NW,313,0.0,0.0,68,0.00,,---,0.00,VWS V14.01,2013-01-27 11:41:00,
2013-01-27 05:42:00,32.7,23.3,29.35,NW,313,0.0,0.0,68,0.00,,---,0.00,VWS V14.01,2013-01-27 11:42:00,
2013-01-27 05:43:00,32.7,23.3,29.35,NW,313,0.0,0.0,68,0.00,,---,0.00,VWS V14.01,2013-01-27 11:43:00,
2013-01-27 05:44:00,32.7,23.3,29.35,NW,313,0.0,0.0,68,0.00,,---,0.00,VWS V14.01,2013-01-27 11:44:00,
2013-01-27 05:45:00,32.7,23.3,29.35,NW,313,0.0,0.0,68,0.00,,---,0.00,VWS V14.01,2013-01-27 11:45:00,
2013-01-27 05:46:00,32.7,23.3,29.35,NW,313,0.0,0.0,68,0.00,,---,0.00,VWS V14.01,2013-01-27 11:46:00,
2013-01-27 05:47:00,32.7,23.3,29.35,NW,313,0.0,0.0,68,0.00,,---,0.00,VWS V14.01,2013-01-27 11:47:00,
2013-01-27 05:48:00,32.7,23.3,29.35,NW,313,0.0,0.0,68,0.00,,---,0.00,VWS V14.01,2013-01-27 11:48:00,
2013-01-27 05:49:00,32.7,23.3,29.35,NW,313,0.0,0.0,68,0.00,,---,0.00,VWS V14.01,2013-01-27 11:49:00,
2013-01-27 05:50:00,32.7,23.3,29.35,NW,313,0.0,0.0,68,0.00,,---,0.00,VWS V14.01,2013-01-27 11:50:00,
2013-01-27 05:51:00,32.7,23.3,29.35,NW,313,0.0,0.0,68,0.00,,---,0.00,VWS V14.01,2013-01-27 11:51:00,
2013-01-27 05:52:00,32.7,23.7,29.35,NW,313,0.0,0.0,69,0.00,,---,0.00,VWS V14.01,2013-01-27 11:52:00,
2013-01-27 05:53:00,32.7,23.7,29.35,NW,313,0.0,0.0,69,0.00,,---,0.00,VWS V14.01,2013-01-27 11:53:00,
2013-01-27 05:54:00,32.7,23.7,29.35,NW,313,0.0,0.0,69,0.00,,---,0.00,VWS V14.01,2013-01-27 11:54:00,
2013-01-27 05:55:00,32.7,23.7,29.35,NW,313,0.0,0.0,69,0.00,,---,0.00,VWS V14.01,2013-01-27 11:55:00,
2013-01-27 05:56:00,32.7,23.7,29.35,NW,313,0.0,0.0,69,0.00,,---,0.00,VWS V14.01,2013-01-27 11:56:00,
2013-01-27 05:57:00,32.7,23.7,29.35,NW,313,0.0,0.0,69,0.00,,---,0.00,VWS V14.01,2013-01-27 11:57:00,
2013-01-27 05:58:00,32.7,23.7,29.35,NW,313,0.0,0.0,69,0.00,,---,0.00,VWS V14.01,2013-01-27 11:58:00,
2013-01-27 05:59:00,32.7,23.7,29.35,NW,313,0.0,0.0,69,0.00,,---,0.00,VWS V14.01,2013-01-27 11:59:00,
2013-01-27 06:00:00,32.7,23.3,29.35,NW,313,0.0,0.0,68,0.00,,---,0.00,VWS V14.01,2013-01-27 12:00:00,
2013-01-27 06:01:00,32.7,23.3,29.35,NW,313,0.0,0.0,68,0.00,,---,0.00,VWS V14.01,2013-01-27 12:01:00,
2013-01-27 06:02:00,32.7,23.3,29.35,NW,313,0.0,0.0,68,0.00,,---,0.00,VWS V14.01,2013-01-27 12:02:00,
2013-01-27 06:03:00,32.7,23.3,29.35,NW,313,0.0,0.0,68,0.00,,---,0.00,VWS V14.01,2013-01-27 12:03:00,
2013-01-27 06:04:00,32.7,23.3,29.35,NW,313,0.0,0.0,68,0.00,,---,0.00,VWS V14.01,2013-01-27 12:04:00,
2013-01-27 06:05:00,32.7,23.3,29.35,NW,313,0.0,0.0,68,0.00,,---,0.00,VWS V14.01,2013-01-27 12:05:00,
2013-01-27 06:06:00,32.7,23.3,29.35,NW,313,0.0,0.0,68,0.00,,---,0.00,VWS V14.01,2013-01-27 12:06:00,
2013-01-27 06:07:00,32.7,23.3,29.35,NW,313,0.0,0.0,68,0.00,,---,0.00,VWS V14.01,2013-01-27 12:07:00,
2013-01-27 06:08:00,32.7,23.3,29.35,NW,313,0.0,0.0,68,0.00,,---,0.00,VWS V14.01,2013-01-27 12:08:00,
2013-01-27 06:09:00,32.7,23.3,29.35,NW,313,0.0,0.0,68,0.00,,---,0.00,VWS V14.01,2013-01-27 12:09:00,
2013-01-27 06:10:00,32.7,23.3,29.35,NW,313,0.0,0.0,68,0.00,,---,0.00,VWS V14.01,2013-01-27 12:10:00,
2013-01-27 06:11:00,32.7,23.3,29.35,NW,313,0.0,0.0,68,0.00,,---,0.00,VWS V14.01,2013-01-27 12:11:00,
2013-01-27 06:12:00,32.7,23.3,29.35,NW,312,0.0,0.0,68,0.00,,---,0.00,VWS V14.01,2013-01-27 12:12:00,
2013-01-27 06:13:00,32.7,23.3,29.35,NW,313,0.0,0.0,68,0.00,,---,0.00,VWS V14.01,2013-01-27 12:13:00,
2013-01-27 06:14:00,32.7,23.3,29.35,NW,313,0.0,0.0,68,0.00,,---,0.00,VWS V14.01,2013-01-27 12:14:00,
2013-01-27 06:15:00,32.7,23.3,29.35,NW,313,0.0,0.0,68,0.00,,---,0.00,VWS V14.01,2013-01-27 12:15:00,
2013-01-27 06:16:00,32.5,23.2,29.35,NW,313,3.1,3.1,68,0.00,,---,0.00,VWS V14.01,2013-01-27 12:16:00,
2013-01-27 06:17:00,32.5,23.2,29.35,NW,313,3.1,3.1,68,0.00,,---,0.00,VWS V14.01,2013-01-27 12:17:00,
2013-01-27 06:18:00,32.5,23.2,29.35,NW,316,4.9,4.9,68,0.00,,---,0.00,VWS V14.01,2013-01-27 12:18:00,
2013-01-27 06:19:00,32.5,23.2,29.35,NW,316,4.9,4.9,68,0.00,,---,0.00,VWS V14.01,2013-01-27 12:19:00,
2013-01-27 06:20:00,32.5,23.2,29.35,NW,322,2.7,4.9,68,0.00,,---,0.00,VWS V14.01,2013-01-27 12:20:00,
2013-01-27 06:21:00,32.5,22.8,29.35,NW,322,2.7,2.7,67,0.00,,---,0.00,VWS V14.01,2013-01-27 12:21:00,
2013-01-27 06:22:00,32.5,22.8,29.35,NW,322,0.0,2.7,67,0.00,,---,0.00,VWS V14.01,2013-01-27 12:22:00,
2013-01-27 06:23:00,32.5,22.8,29.35,NW,322,0.0,0.0,67,0.00,,---,0.00,VWS V14.01,2013-01-27 12:23:00,
2013-01-27 06:24:00,32.5,22.8,29.35,NW,322,0.0,0.0,67,0.00,,---,0.00,VWS V14.01,2013-01-27 12:24:00,
2013-01-27 06:25:00,32.4,22.6,29.35,NNW,331,3.6,3.6,67,0.00,,---,0.00,VWS V14.01,2013-01-27 12:25:00,
2013-01-27 06:26:00,32.4,22.6,29.35,NNW,331,3.6,3.6,67,0.00,,---,0.00,VWS V14.01,2013-01-27 12:26:00,
2013-01-27 06:27:00,32.4,22.6,29.35,NW,326,3.6,3.6,67,0.00,,---,0.00,VWS V14.01,2013-01-27 12:27:00,
2013-01-27 06:28:00,32.4,22.6,29.38,NW,325,2.7,3.6,67,0.00,,---,0.00,VWS V14.01,2013-01-27 12:28:00,
2013-01-27 06:29:00,32.4,22.6,29.38,NW,325,3.1,3.1,67,0.00,,---,0.00,VWS V14.01,2013-01-27 12:29:00,
2013-01-27 06:30:00,32.4,22.6,29.38,NW,325,3.1,3.1,67,0.00,,---,0.00,VWS V14.01,2013-01-27 12:30:00,
2013-01-27 06:31:00,32.4,22.6,29.38,NW,325,3.1,3.1,67,0.00,,---,0.00,VWS V14.01,2013-01-27 12:31:00,
2013-01-27 06:32:00,32.4,22.6,29.38,NW,315,0.0,3.1,67,0.00,,---,0.00,VWS V14.01,2013-01-27 12:32:00,
2013-01-27 06:33:00,32.4,22.6,29.38,NW,315,0.0,0.0,67,0.00,,---,0.00,VWS V14.01,2013-01-27 12:33:00,
2013-01-27 06:34:00,32.4,22.6,29.38,NW,315,0.0,0.0,67,0.00,,---,0.00,VWS V14.01,2013-01-27 12:34:00,
2013-01-27 06:35:00,32.4,22.6,29.38,NW,315,0.0,0.0,67,0.00,,---,0.00,VWS V14.01,2013-01-27 12:35:00,
2013-01-27 06:36:00,32.4,22.6,29.38,NW,315,0.0,0.0,67,0.00,,---,0.00,VWS V14.01,2013-01-27 12:36:00,
2013-01-27 06:37:00,32.4,22.6,29.38,NW,315,0.0,0.0,67,0.00,,---,0.00,VWS V14.01,2013-01-27 12:37:00,
2013-01-27 06:38:00,32.4,22.6,29.38,NW,322,2.2,3.1,67,0.00,,---,0.00,VWS V14.01,2013-01-27 12:38:00,
2013-01-27 06:39:00,32.4,22.6,29.38,NW,322,0.0,0.0,67,0.00,,---,0.00,VWS V14.01,2013-01-27 12:39:00,
2013-01-27 06:40:00,32.4,22.6,29.38,NW,322,2.2,2.2,67,0.00,,---,0.00,VWS V14.01,2013-01-27 12:40:00,
2013-01-27 06:41:00,32.4,22.6,29.38,NW,322,2.2,2.2,67,0.00,,---,0.00,VWS V14.01,2013-01-27 12:41:00,
2013-01-27 06:42:00,32.4,22.6,29.38,NW,322,0.0,2.2,67,0.00,,---,0.00,VWS V14.01,2013-01-27 12:42:00,
2013-01-27 06:43:00,32.0,22.6,29.38,NW,304,3.1,3.1,68,0.00,,---,0.00,VWS V14.01,2013-01-27 12:43:00,
2013-01-27 06:44:00,32.0,22.6,29.38,NW,304,2.7,2.7,68,0.00,,---,0.00,VWS V14.01,2013-01-27 12:44:00,
2013-01-27 06:45:00,32.0,22.6,29.38,NW,304,2.7,2.7,68,0.00,,---,0.00,VWS V14.01,2013-01-27 12:45:00,
2013-01-27 06:46:00,32.0,22.6,29.38,WNW,302,0.0,2.7,68,0.00,,---,0.00,VWS V14.01,2013-01-27 12:46:00,
2013-01-27 06:47:00,32.0,22.6,29.38,WNW,295,0.0,2.7,68,0.00,,---,0.00,VWS V14.01,2013-01-27 12:47:00,
2013-01-27 06:48:00,32.0,22.6,29.38,WNW,296,0.0,0.0,68,0.00,,---,0.00,VWS V14.01,2013-01-27 12:48:00,
2013-01-27 06:49:00,32.0,22.6,29.38,WNW,296,0.0,0.0,68,0.00,,---,0.00,VWS V14.01,2013-01-27 12:49:00,
2013-01-27 06:50:00,32.0,22.6,29.38,WNW,296,0.0,0.0,68,0.00,,---,0.00,VWS V14.01,2013-01-27 12:50:00,
2013-01-27 06:51:00,32.0,22.6,29.38,WNW,296,0.0,0.0,68,0.00,,---,0.00,VWS V14.01,2013-01-27 12:51:00,
2013-01-27 06:52:00,32.0,22.6,29.38,WNW,296,0.0,0.0,68,0.00,,---,0.00,VWS V14.01,2013-01-27 12:52:00,
2013-01-27 06:53:00,32.0,22.6,29.38,WNW,296,0.0,0.0,68,0.00,,---,0.00,VWS V14.01,2013-01-27 12:53:00,
2013-01-27 06:54:00,32.0,22.6,29.38,WNW,296,0.0,0.0,68,0.00,,---,0.00,VWS V14.01,2013-01-27 12:54:00,
2013-01-27 06:55:00,32.0,22.6,29.38,WNW,296,0.0,0.0,68,0.00,,---,0.00,VWS V14.01,2013-01-27 12:55:00,
2013-01-27 06:56:00,32.0,22.6,29.38,WNW,296,0.0,0.0,68,0.00,,---,0.00,VWS V14.01,2013-01-27 12:56:00,
2013-01-27 06:57:00,32.0,22.6,29.38,WNW,296,0.0,0.0,68,0.00,,---,0.00,VWS V14.01,2013-01-27 12:57:00,
2013-01-27 06:58:00,32.0,22.6,29.38,WNW,296,0.0,0.0,68,0.00,,---,0.00,VWS V14.01,2013-01-27 12:58:00,
2013-01-27 06:59:00,32.0,22.6,29.38,WNW,296,0.0,0.0,68,0.00,,---,0.00,VWS V14.01,2013-01-27 12:59:00,
2013-01-27 07:00:00,32.0,22.6,29.38,WNW,296,0.0,0.0,68,0.00,,---,0.00,VWS V14.01,2013-01-27 13:00:00,
2013-01-27 07:01:00,32.0,22.6,29.38,WNW,296,0.0,0.0,68,0.00,,---,0.00,VWS V14.01,2013-01-27 13:01:00,
2013-01-27 07:02:00,32.2,23.2,29.38,WNW,296,0.0,0.0,69,0.00,,---,0.00,VWS V14.01,2013-01-27 13:02:00,
2013-01-27 07:03:00,32.2,23.2,29.38,WNW,296,0.0,0.0,69,0.00,,---,0.00,VWS V14.01,2013-01-27 13:03:00,
2013-01-27 07:04:00,32.2,23.2,29.38,WNW,296,0.0,0.0,69,0.00,,---,0.00,VWS V14.01,2013-01-27 13:04:00,
2013-01-27 07:05:00,32.2,23.2,29.38,WNW,296,0.0,0.0,69,0.00,,---,0.00,VWS V14.01,2013-01-27 13:05:00,
2013-01-27 07:06:00,32.2,23.2,29.38,WNW,296,0.0,0.0,69,0.00,,---,0.00,VWS V14.01,2013-01-27 13:06:00,
2013-01-27 07:07:00,32.2,23.2,29.38,WNW,296,0.0,0.0,69,0.00,,---,0.00,VWS V14.01,2013-01-27 13:07:00,
2013-01-27 07:08:00,32.5,23.5,29.38,WNW,296,0.0,0.0,69,0.00,,---,0.00,VWS V14.01,2013-01-27 13:08:00,
2013-01-27 07:09:00,32.5,23.5,29.38,WNW,296,0.0,0.0,69,0.00,,---,0.00,VWS V14.01,2013-01-27 13:09:00,
2013-01-27 07:10:00,32.5,23.5,29.38,WNW,296,0.0,0.0,69,0.00,,---,0.00,VWS V14.01,2013-01-27 13:10:00,
2013-01-27 07:11:00,32.7,23.7,29.38,WNW,296,0.0,0.0,69,0.00,,---,0.00,VWS V14.01,2013-01-27 13:11:00,
2013-01-27 07:12:00,32.7,23.7,29.38,WNW,296,0.0,0.0,69,0.00,,---,0.00,VWS V14.01,2013-01-27 13:12:00,
2013-01-27 07:13:00,32.7,23.7,29.38,WNW,296,0.0,0.0,69,0.00,,---,0.00,VWS V14.01,2013-01-27 13:13:00,
2013-01-27 07:14:00,32.7,23.7,29.38,WNW,296,0.0,0.0,69,0.00,,---,0.00,VWS V14.01,2013-01-27 13:14:00,
2013-01-27 07:15:00,32.7,23.7,29.38,WNW,296,0.0,0.0,69,0.00,,---,0.00,VWS V14.01,2013-01-27 13:15:00,
2013-01-27 07:16:00,32.7,23.7,29.38,WNW,296,0.0,0.0,69,0.00,,---,0.00,VWS V14.01,2013-01-27 13:16:00,
2013-01-27 07:17:00,32.9,23.9,29.38,WNW,296,0.0,0.0,69,0.00,,---,0.00,VWS V14.01,2013-01-27 13:17:00,
2013-01-27 07:18:00,32.9,23.9,29.38,WNW,296,0.0,0.0,69,0.00,,---,0.00,VWS V14.01,2013-01-27 13:18:00,
2013-01-27 07:19:00,33.1,24.0,29.38,WNW,296,0.0,0.0,69,0.00,,---,0.00,VWS V14.01,2013-01-27 13:19:00,
2013-01-27 07:20:00,33.1,24.0,29.38,WNW,296,0.0,0.0,69,0.00,,---,0.00,VWS V14.01,2013-01-27 13:20:00,
2013-01-27 07:21:00,33.1,24.0,29.38,WNW,296,0.0,0.0,69,0.00,,---,0.00,VWS V14.01,2013-01-27 13:21:00,
2013-01-27 07:22:00,33.1,24.0,29.38,WNW,295,0.0,0.0,69,0.00,,---,0.00,VWS V14.01,2013-01-27 13:22:00,
2013-01-27 07:23:00,33.1,24.0,29.38,WNW,296,0.0,0.0,69,0.00,,---,0.00,VWS V14.01,2013-01-27 13:23:00,
2013-01-27 07:24:00,33.1,24.0,29.38,WNW,296,0.0,0.0,69,0.00,,---,0.00,VWS V14.01,2013-01-27 13:24:00,
2013-01-27 07:25:00,33.1,24.0,29.38,WNW,296,0.0,0.0,69,0.00,,---,0.00,VWS V14.01,2013-01-27 13:25:00,
2013-01-27 07:26:00,33.1,24.0,29.38,WNW,296,0.0,0.0,69,0.00,,---,0.00,VWS V14.01,2013-01-27 13:26:00,
2013-01-27 07:27:00,33.1,24.0,29.38,WNW,296,0.0,0.0,69,0.00,,---,0.00,VWS V14.01,2013-01-27 13:27:00,
2013-01-27 07:28:00,33.1,24.0,29.38,WNW,296,0.0,0.0,69,0.00,,---,0.00,VWS V14.01,2013-01-27 13:28:00,
2013-01-27 07:29:00,33.1,24.0,29.38,WNW,296,0.0,0.0,69,0.00,,---,0.00,VWS V14.01,2013-01-27 13:29:00,
2013-01-27 07:30:00,33.1,24.0,29.38,WNW,293,0.0,0.0,69,0.00,,---,0.00,VWS V14.01,2013-01-27 13:30:00,
2013-01-27 07:31:00,33.1,24.0,29.38,WNW,292,0.0,0.0,69,0.00,,---,0.00,VWS V14.01,2013-01-27 13:31:00,
2013-01-27 07:32:00,33.1,24.0,29.38,WNW,292,0.0,0.0,69,0.00,,---,0.00,VWS V14.01,2013-01-27 13:32:00,
2013-01-27 07:33:00,34.0,24.9,29.38,WNW,292,0.0,0.0,69,0.00,,---,0.00,VWS V14.01,2013-01-27 13:33:00,
2013-01-27 07:34:00,34.2,25.1,29.38,WNW,293,0.0,0.0,69,0.00,,---,0.00,VWS V14.01,2013-01-27 13:34:00,
2013-01-27 07:35:00,34.2,25.1,29.38,WNW,293,0.0,0.0,69,0.00,,---,0.00,VWS V14.01,2013-01-27 13:35:00,
2013-01-27 07:36:00,34.2,25.1,29.38,WNW,293,0.0,0.0,69,0.00,,---,0.00,VWS V14.01,2013-01-27 13:36:00,
2013-01-27 07:37:00,34.2,25.1,29.38,NW,304,3.1,3.1,69,0.00,,---,0.00,VWS V14.01,2013-01-27 13:37:00,
2013-01-27 07:38:00,34.3,24.9,29.38,NW,304,2.7,3.1,68,0.00,,---,0.00,VWS V14.01,2013-01-27 13:38:00,
2013-01-27 07:39:00,34.3,24.9,29.38,NW,304,2.2,2.7,68,0.00,,---,0.00,VWS V14.01,2013-01-27 13:39:00,
2013-01-27 07:40:00,34.3,24.9,29.38,NW,304,2.2,2.7,68,0.00,,---,0.00,VWS V14.01,2013-01-27 13:40:00,
2013-01-27 07:41:00,34.3,24.9,29.38,NW,304,0.0,2.2,68,0.00,,---,0.00,VWS V14.01,2013-01-27 13:41:00,
2013-01-27 07:42:00,34.3,24.9,29.38,NW,304,0.0,0.0,68,0.00,,---,0.00,VWS V14.01,2013-01-27 13:42:00,
2013-01-27 07:43:00,34.3,24.9,29.38,NW,304,0.0,0.0,68,0.00,,---,0.00,VWS V14.01,2013-01-27 13:43:00,
2013-01-27 07:44:00,34.3,24.9,29.38,NW,304,0.0,0.0,68,0.00,,---,0.00,VWS V14.01,2013-01-27 13:44:00,
2013-01-27 07:45:00,34.3,24.9,29.38,NW,304,0.0,0.0,68,0.00,,---,0.00,VWS V14.01,2013-01-27 13:45:00,
2013-01-27 07:46:00,34.3,24.2,29.38,NW,304,0.0,0.0,66,0.00,,---,0.00,VWS V14.01,2013-01-27 13:46:00,
2013-01-27 07:47:00,34.3,24.2,29.41,NW,304,0.0,0.0,66,0.00,,---,0.00,VWS V14.01,2013-01-27 13:47:00,
2013-01-27 07:48:00,34.5,24.4,29.41,NW,304,0.0,0.0,66,0.00,,---,0.00,VWS V14.01,2013-01-27 13:48:00,
2013-01-27 07:49:00,34.5,24.4,29.41,NW,304,0.0,0.0,66,0.00,,---,0.00,VWS V14.01,2013-01-27 13:49:00,
2013-01-27 07:50:00,34.5,24.4,29.41,NW,304,0.0,0.0,66,0.00,,---,0.00,VWS V14.01,2013-01-27 13:50:00,
2013-01-27 07:51:00,34.7,24.5,29.41,NW,304,0.0,0.0,66,0.00,,---,0.00,VWS V14.01,2013-01-27 13:51:00,
2013-01-27 07:52:00,34.7,24.5,29.41,NW,304,0.0,0.0,66,0.00,,---,0.00,VWS V14.01,2013-01-27 13:52:00,
2013-01-27 07:53:00,34.7,24.5,29.41,NW,304,0.0,0.0,66,0.00,,---,0.00,VWS V14.01,2013-01-27 13:53:00,
2013-01-27 07:54:00,34.7,24.5,29.41,NW,304,0.0,0.0,66,0.00,,---,0.00,VWS V14.01,2013-01-27 13:54:00,
2013-01-27 07:55:00,34.7,24.5,29.41,NW,304,0.0,0.0,66,0.00,,---,0.00,VWS V14.01,2013-01-27 13:55:00,
2013-01-27 07:56:00,34.7,24.5,29.41,NW,304,0.0,0.0,66,0.00,,---,0.00,VWS V14.01,2013-01-27 13:56:00,
2013-01-27 07:57:00,34.7,24.5,29.41,NW,304,0.0,0.0,66,0.00,,---,0.00,VWS V14.01,2013-01-27 13:57:00,
2013-01-27 07:58:00,35.6,25.4,29.41,NW,304,0.0,0.0,66,0.00,,---,0.00,VWS V14.01,2013-01-27 13:58:00,
2013-01-27 07:59:00,35.6,25.4,29.41,NW,304,0.0,0.0,66,0.00,,---,0.00,VWS V14.01,2013-01-27 13:59:00,
2013-01-27 08:00:00,35.6,25.0,29.41,NW,304,0.0,0.0,65,0.00,,---,0.00,VWS V14.01,2013-01-27 14:00:00,
2013-01-27 08:01:00,35.6,25.0,29.41,NW,304,0.0,0.0,65,0.00,,---,0.00,VWS V14.01,2013-01-27 14:01:00,
2013-01-27 08:02:00,36.1,25.5,29.41,NW,304,0.0,0.0,65,0.00,,---,0.00,VWS V14.01,2013-01-27 14:02:00,
2013-01-27 08:03:00,36.3,25.7,29.41,NW,304,0.0,0.0,65,0.00,,---,0.00,VWS V14.01,2013-01-27 14:03:00,
2013-01-27 08:04:00,36.3,25.7,29.41,South,189,2.7,3.1,65,0.00,,---,0.00,VWS V14.01,2013-01-27 14:04:00,
2013-01-27 08:05:00,36.3,25.7,29.41,South,189,2.7,3.1,65,0.00,,---,0.00,VWS V14.01,2013-01-27 14:05:00,
2013-01-27 08:06:00,36.3,25.7,29.41,South,178,2.7,2.7,65,0.00,,---,0.00,VWS V14.01,2013-01-27 14:06:00,
2013-01-27 08:07:00,36.3,25.7,29.41,South,178,0.0,2.7,65,0.00,,---,0.00,VWS V14.01,2013-01-27 14:07:00,
2013-01-27 08:08:00,36.3,25.7,29.38,South,178,0.0,0.0,65,0.00,,---,0.00,VWS V14.01,2013-01-27 14:08:00,
2013-01-27 08:09:00,36.3,25.7,29.38,South,178,0.0,0.0,65,0.00,,---,0.00,VWS V14.01,2013-01-27 14:09:00,
2013-01-27 08:10:00,36.3,25.7,29.38,South,178,0.0,0.0,65,0.00,,---,0.00,VWS V14.01,2013-01-27 14:10:00,
2013-01-27 08:11:00,36.3,25.7,29.38,South,183,2.2,2.2,65,0.00,,---,0.00,VWS V14.01,2013-01-27 14:11:00,
2013-01-27 08:12:00,36.3,25.7,29.38,South,183,2.2,2.2,65,0.00,,---,0.00,VWS V14.01,2013-01-27 14:12:00,
2013-01-27 08:13:00,36.3,25.7,29.38,South,183,2.2,2.2,65,0.00,,---,0.00,VWS V14.01,2013-01-27 14:13:00,
2013-01-27 08:14:00,36.3,25.7,29.38,South,187,3.6,3.6,65,0.00,,---,0.00,VWS V14.01,2013-01-27 14:14:00,
2013-01-27 08:15:00,36.3,25.7,29.38,South,187,3.6,3.6,65,0.00,,---,0.00,VWS V14.01,2013-01-27 14:15:00,
2013-01-27 08:16:00,36.3,25.7,29.38,South,177,0.0,0.0,65,0.00,,---,0.00,VWS V14.01,2013-01-27 14:16:00,
2013-01-27 08:17:00,36.3,25.7,29.38,South,177,2.7,2.7,65,0.00,,---,0.00,VWS V14.01,2013-01-27 14:17:00,
2013-01-27 08:18:00,36.3,25.7,29.38,South,177,2.7,2.7,65,0.00,,---,0.00,VWS V14.01,2013-01-27 14:18:00,
2013-01-27 08:19:00,36.3,25.7,29.38,South,185,3.6,3.6,65,0.00,,---,0.00,VWS V14.01,2013-01-27 14:19:00,
2013-01-27 08:20:00,39.9,25.5,29.38,South,185,3.6,3.6,56,0.00,,---,0.00,VWS V14.01,2013-01-27 14:20:00,
2013-01-27 08:21:00,39.9,25.5,29.38,South,185,0.0,3.6,56,0.00,,---,0.00,VWS V14.01,2013-01-27 14:21:00,
2013-01-27 08:22:00,39.7,24.9,29.38,South,185,0.0,0.0,55,0.00,,---,0.00,VWS V14.01,2013-01-27 14:22:00,
2013-01-27 08:23:00,39.7,24.9,29.38,South,185,0.0,0.0,55,0.00,,---,0.00,VWS V14.01,2013-01-27 14:23:00,
2013-01-27 08:24:00,39.6,23.9,29.38,WNW,291,2.7,2.7,53,0.00,,---,0.00,VWS V14.01,2013-01-27 14:24:00,
2013-01-27 08:25:00,39.4,22.8,29.38,NW,324,2.2,2.7,51,0.00,,---,0.00,VWS V14.01,2013-01-27 14:25:00,
2013-01-27 08:26:00,39.4,22.8,29.38,NW,324,2.2,2.2,51,0.00,,---,0.00,VWS V14.01,2013-01-27 14:26:00,
2013-01-27 08:27:00,39.4,22.8,29.38,NW,323,4.0,4.0,51,0.00,,---,0.00,VWS V14.01,2013-01-27 14:27:00,
2013-01-27 08:28:00,39.4,22.8,29.38,NW,323,4.0,4.0,51,0.00,,---,0.00,VWS V14.01,2013-01-27 14:28:00,
2013-01-27 08:29:00,39.4,22.8,29.38,WNW,286,0.0,2.2,51,0.00,,---,0.00,VWS V14.01,2013-01-27 14:29:00,
2013-01-27 08:30:00,39.4,22.8,29.38,WNW,286,0.0,0.0,51,0.00,,---,0.00,VWS V14.01,2013-01-27 14:30:00,
2013-01-27 08:31:00,39.4,22.8,29.38,WNW,286,0.0,0.0,51,0.00,,---,0.00,VWS V14.01,2013-01-27 14:31:00,
2013-01-27 08:32:00,39.4,22.8,29.38,WNW,285,0.0,0.0,51,0.00,,---,0.00,VWS V14.01,2013-01-27 14:32:00,
2013-01-27 08:33:00,39.4,22.8,29.38,WNW,285,2.2,2.2,51,0.00,,---,0.00,VWS V14.01,2013-01-27 14:33:00,
2013-01-27 08:34:00,39.4,22.8,29.38,WNW,285,2.2,2.2,51,0.00,,---,0.00,VWS V14.01,2013-01-27 14:34:00,
2013-01-27 08:35:00,39.4,22.8,29.38,NW,315,3.6,3.6,51,0.00,,---,0.00,VWS V14.01,2013-01-27 14:35:00,
2013-01-27 08:36:00,39.4,22.8,29.38,WSW,238,0.0,3.6,51,0.00,,---,0.00,VWS V14.01,2013-01-27 14:36:00,
2013-01-27 08:37:00,39.2,21.2,29.38,NW,307,2.7,2.7,48,0.00,,---,0.00,VWS V14.01,2013-01-27 14:37:00,
2013-01-27 08:38:00,39.2,21.2,29.41,NW,307,2.7,2.7,48,0.00,,---,0.00,VWS V14.01,2013-01-27 14:38:00,
2013-01-27 08:39:00,39.2,21.2,29.41,North,353,2.7,3.1,48,0.00,,---,0.00,VWS V14.01,2013-01-27 14:39:00,
2013-01-27 08:40:00,39.2,21.2,29.41,North,353,2.7,2.7,48,0.00,,---,0.00,VWS V14.01,2013-01-27 14:40:00,
2013-01-27 08:41:00,39.2,21.2,29.41,North,353,2.2,2.7,48,0.00,,---,0.00,VWS V14.01,2013-01-27 14:41:00,
2013-01-27 08:42:00,39.0,22.0,29.41,North,353,2.2,2.2,50,0.00,,---,0.00,VWS V14.01,2013-01-27 14:42:00,
2013-01-27 08:43:00,39.0,22.0,29.41,North,353,0.0,2.2,50,0.00,,---,0.00,VWS V14.01,2013-01-27 14:43:00,
2013-01-27 08:44:00,39.2,22.1,29.41,North,353,0.0,0.0,50,0.00,,---,0.00,VWS V14.01,2013-01-27 14:44:00,
2013-01-27 08:45:00,39.2,22.1,29.41,North,353,0.0,0.0,50,0.00,,---,0.00,VWS V14.01,2013-01-27 14:45:00,
2013-01-27 08:46:00,39.2,22.1,29.41,North,353,0.0,0.0,50,0.00,,---,0.00,VWS V14.01,2013-01-27 14:46:00,
2013-01-27 08:47:00,39.2,22.1,29.41,NW,317,0.0,0.0,50,0.00,,---,0.00,VWS V14.01,2013-01-27 14:47:00,
2013-01-27 08:48:00,39.4,22.8,29.41,NW,317,0.0,0.0,51,0.00,,---,0.00,VWS V14.01,2013-01-27 14:48:00,
2013-01-27 08:49:00,39.4,22.8,29.41,NW,317,0.0,0.0,51,0.00,,---,0.00,VWS V14.01,2013-01-27 14:49:00,
2013-01-27 08:50:00,39.6,22.9,29.41,NW,317,0.0,0.0,51,0.00,,---,0.00,VWS V14.01,2013-01-27 14:50:00,
2013-01-27 08:51:00,39.6,22.9,29.41,NW,313,0.0,0.0,51,0.00,,---,0.00,VWS V14.01,2013-01-27 14:51:00,
2013-01-27 08:52:00,39.6,22.9,29.41,NW,312,0.0,0.0,51,0.00,,---,0.00,VWS V14.01,2013-01-27 14:52:00,
2013-01-27 08:53:00,39.6,22.9,29.41,NW,312,0.0,0.0,51,0.00,,---,0.00,VWS V14.01,2013-01-27 14:53:00,
2013-01-27 08:54:00,39.6,22.9,29.41,NW,312,0.0,0.0,51,0.00,,---,0.00,VWS V14.01,2013-01-27 14:54:00,
2013-01-27 08:55:00,39.6,22.9,29.41,NNW,336,3.1,3.1,51,0.00,,---,0.00,VWS V14.01,2013-01-27 14:55:00,
2013-01-27 08:56:00,39.6,22.9,29.41,NNW,336,3.1,3.1,51,0.00,,---,0.00,VWS V14.01,2013-01-27 14:56:00,
2013-01-27 08:57:00,39.6,22.9,29.41,NNW,336,3.1,3.1,51,0.00,,---,0.00,VWS V14.01,2013-01-27 14:57:00,
2013-01-27 08:58:00,40.1,23.0,29.41,NNW,343,2.7,3.1,50,0.00,,---,0.00,VWS V14.01,2013-01-27 14:58:00,
2013-01-27 08:59:00,40.1,23.0,29.41,NNW,343,0.0,0.0,50,0.00,,---,0.00,VWS V14.01,2013-01-27 14:59:00,
2013-01-27 09:00:00,40.1,23.0,29.41,NNW,343,0.0,0.0,50,0.00,,---,0.00,VWS V14.01,2013-01-27 15:00:00,
2013-01-27 09:01:00,40.1,23.0,29.41,NNW,343,0.0,0.0,50,0.00,,---,0.00,VWS V14.01,2013-01-27 15:01:00,
2013-01-27 09:02:00,40.1,23.0,29.41,NNW,343,0.0,0.0,50,0.00,,---,0.00,VWS V14.01,2013-01-27 15:02:00,
2013-01-27 09:03:00,40.1,23.0,29.41,NNW,343,0.0,0.0,50,0.00,,---,0.00,VWS V14.01,2013-01-27 15:03:00,
2013-01-27 09:04:00,40.1,23.0,29.41,NW,322,3.6,3.6,50,0.00,,---,0.00,VWS V14.01,2013-01-27 15:04:00,
2013-01-27 09:05:00,40.1,23.0,29.41,NW,322,2.7,3.6,50,0.00,,---,0.00,VWS V14.01,2013-01-27 15:05:00,
2013-01-27 09:06:00,40.6,23.0,29.41,NW,322,2.7,2.7,49,0.00,,---,0.00,VWS V14.01,2013-01-27 15:06:00,
2013-01-27 09:07:00,40.6,23.0,29.41,NNW,329,3.6,3.6,49,0.00,,---,0.00,VWS V14.01,2013-01-27 15:07:00,
2013-01-27 09:08:00,40.8,23.1,29.41,NNW,328,2.2,3.6,49,0.00,,---,0.00,VWS V14.01,2013-01-27 15:08:00,
2013-01-27 09:09:00,41.0,23.3,29.41,NNW,340,2.2,2.2,49,0.00,,---,0.00,VWS V14.01,2013-01-27 15:09:00,
2013-01-27 09:10:00,41.2,23.5,29.41,NNW,332,4.0,4.0,49,0.00,,---,0.00,VWS V14.01,2013-01-27 15:10:00,
2013-01-27 09:11:00,41.2,23.0,29.41,NW,323,2.7,4.0,48,0.00,,---,0.00,VWS V14.01,2013-01-27 15:11:00,
2013-01-27 09:12:00,41.4,23.2,29.41,NW,317,2.7,2.7,48,0.00,,---,0.00,VWS V14.01,2013-01-27 15:12:00,
2013-01-27 09:13:00,41.5,23.3,29.41,NW,312,4.0,4.0,48,0.00,,---,0.00,VWS V14.01,2013-01-27 15:13:00,
2013-01-27 09:14:00,41.5,23.3,29.41,NW,312,4.0,4.0,48,0.00,,---,0.00,VWS V14.01,2013-01-27 15:14:00,
2013-01-27 09:15:00,42.1,23.8,29.41,WNW,299,0.0,0.0,48,0.00,,---,0.00,VWS V14.01,2013-01-27 15:15:00,
2013-01-27 09:16:00,42.1,23.8,29.41,NNE,12,0.0,0.0,48,0.00,,---,0.00,VWS V14.01,2013-01-27 15:16:00,
2013-01-27 09:17:00,42.3,24.0,29.41,WNW,297,0.0,0.0,48,0.00,,---,0.00,VWS V14.01,2013-01-27 15:17:00,
2013-01-27 09:18:00,42.4,24.1,29.41,ENE,60,2.2,2.2,48,0.00,,---,0.00,VWS V14.01,2013-01-27 15:18:00,
2013-01-27 09:19:00,42.4,23.6,29.41,ENE,60,0.0,2.2,47,0.00,,---,0.00,VWS V14.01,2013-01-27 15:19:00,
2013-01-27 09:20:00,42.4,23.6,29.41,ENE,60,0.0,0.0,47,0.00,,---,0.00,VWS V14.01,2013-01-27 15:20:00,
2013-01-27 09:21:00,42.4,23.6,29.41,ENE,60,0.0,0.0,47,0.00,,---,0.00,VWS V14.01,2013-01-27 15:21:00,
2013-01-27 09:22:00,42.4,23.6,29.41,ENE,60,0.0,0.0,47,0.00,,---,0.00,VWS V14.01,2013-01-27 15:22:00,
2013-01-27 09:23:00,43.0,24.1,29.41,East,97,0.0,2.2,47,0.00,,---,0.00,VWS V14.01,2013-01-27 15:23:00,
2013-01-27 09:24:00,43.0,24.1,29.41,East,97,0.0,2.2,47,0.00,,---,0.00,VWS V14.01,2013-01-27 15:24:00,
2013-01-27 09:25:00,43.2,23.8,29.38,NNW,335,3.1,3.1,46,0.00,,---,0.00,VWS V14.01,2013-01-27 15:25:00,
2013-01-27 09:26:00,43.3,24.0,29.38,NNW,335,2.7,3.1,46,0.00,,---,0.00,VWS V14.01,2013-01-27 15:26:00,
2013-01-27 09:27:00,43.7,23.8,29.38,NW,306,3.1,3.1,45,0.00,,---,0.00,VWS V14.01,2013-01-27 15:27:00,
2013-01-27 09:28:00,43.7,23.8,29.38,NNW,341,0.0,2.2,45,0.00,,---,0.00,VWS V14.01,2013-01-27 15:28:00,
2013-01-27 09:29:00,43.7,23.8,29.38,NNW,341,0.0,2.2,45,0.00,,---,0.00,VWS V14.01,2013-01-27 15:29:00,
2013-01-27 09:30:00,44.6,23.5,29.38,NNW,348,3.1,3.1,43,0.00,,---,0.00,VWS V14.01,2013-01-27 15:30:00,
2013-01-27 09:31:00,44.8,23.1,29.38,NNW,331,0.0,3.1,42,0.00,,---,0.00,VWS V14.01,2013-01-27 15:31:00,
2013-01-27 09:32:00,45.1,23.4,29.38,NNW,331,2.2,2.2,42,0.00,,---,0.00,VWS V14.01,2013-01-27 15:32:00,
2013-01-27 09:33:00,45.1,23.4,29.38,NNE,15,5.4,5.4,42,0.00,,---,0.00,VWS V14.01,2013-01-27 15:33:00,
2013-01-27 09:34:00,45.1,23.4,29.38,NNE,15,3.1,5.4,42,0.00,,---,0.00,VWS V14.01,2013-01-27 15:34:00,
2013-01-27 09:35:00,45.9,22.9,29.38,NNW,343,0.0,3.1,40,0.00,,---,0.00,VWS V14.01,2013-01-27 15:35:00,
2013-01-27 09:36:00,45.9,23.5,29.38,NE,48,2.2,2.2,41,0.00,,---,0.00,VWS V14.01,2013-01-27 15:36:00,
2013-01-27 09:37:00,45.9,22.9,29.38,NE,48,0.0,2.2,40,0.00,,---,0.00,VWS V14.01,2013-01-27 15:37:00,
2013-01-27 09:38:00,46.0,23.1,29.38,NE,48,0.0,0.0,40,0.00,,---,0.00,VWS V14.01,2013-01-27 15:38:00,
2013-01-27 09:39:00,45.9,22.3,29.38,NE,48,0.0,0.0,39,0.00,,---,0.00,VWS V14.01,2013-01-27 15:39:00,
2013-01-27 09:40:00,46.0,22.5,29.38,NNE,24,0.0,2.7,39,0.00,,---,0.00,VWS V14.01,2013-01-27 15:40:00,
2013-01-27 09:41:00,46.2,22.6,29.38,NNE,24,0.0,0.0,39,0.00,,---,0.00,VWS V14.01,2013-01-27 15:41:00,
2013-01-27 09:42:00,46.4,22.8,29.38,NNE,24,2.2,2.2,39,0.00,,---,0.00,VWS V14.01,2013-01-27 15:42:00,
2013-01-27 09:43:00,46.6,23.6,29.38,NNE,24,2.2,2.2,40,0.00,,---,0.00,VWS V14.01,2013-01-27 15:43:00,
2013-01-27 09:44:00,46.6,23.0,29.38,NE,35,0.0,2.2,39,0.00,,---,0.00,VWS V14.01,2013-01-27 15:44:00,
2013-01-27 09:45:00,47.1,24.1,29.38,NW,325,3.6,3.6,40,0.00,,---,0.00,VWS V14.01,2013-01-27 15:45:00,
2013-01-27 09:46:00,47.5,23.8,29.38,NW,325,3.6,3.6,39,0.00,,---,0.00,VWS V14.01,2013-01-27 15:46:00,
2013-01-27 09:47:00,47.7,24.5,29.38,South,177,2.7,3.6,40,0.00,,---,0.00,VWS V14.01,2013-01-27 15:47:00,
2013-01-27 09:48:00,47.8,24.7,29.38,NNW,328,2.7,2.7,40,0.00,,---,0.00,VWS V14.01,2013-01-27 15:48:00,
2013-01-27 09:49:00,47.7,23.9,29.38,NW,313,3.1,3.1,39,0.00,,---,0.00,VWS V14.01,2013-01-27 15:49:00,
2013-01-27 09:50:00,47.7,23.9,29.38,NW,313,3.1,3.1,39,0.00,,---,0.00,VWS V14.01,2013-01-27 15:50:00,
2013-01-27 09:51:00,47.8,23.5,29.38,NW,313,0.0,0.0,38,0.00,,---,0.00,VWS V14.01,2013-01-27 15:51:00,
2013-01-27 09:52:00,47.8,23.5,29.38,NW,322,0.0,0.0,38,0.00,,---,0.00,VWS V14.01,2013-01-27 15:52:00,
2013-01-27 09:53:00,48.0,23.6,29.38,NNW,334,0.0,0.0,38,0.00,,---,0.00,VWS V14.01,2013-01-27 15:53:00,
2013-01-27 09:54:00,48.0,23.6,29.38,South,169,0.0,0.0,38,0.00,,---,0.00,VWS V14.01,2013-01-27 15:54:00,
2013-01-27 09:55:00,48.0,23.6,29.38,SSE,168,0.0,0.0,38,0.00,,---,0.00,VWS V14.01,2013-01-27 15:55:00,
2013-01-27 09:56:00,48.2,23.8,29.38,SSE,168,0.0,0.0,38,0.00,,---,0.00,VWS V14.01,2013-01-27 15:56:00,
2013-01-27 09:57:00,48.2,23.8,29.38,SSE,166,2.7,2.7,38,0.00,,---,0.00,VWS V14.01,2013-01-27 15:57:00,
2013-01-27 09:58:00,48.2,23.2,29.38,WSW,243,3.1,3.6,37,0.00,,---,0.00,VWS V14.01,2013-01-27 15:58:00,
2013-01-27 09:59:00,48.2,23.2,29.38,WSW,243,0.0,3.1,37,0.00,,---,0.00,VWS V14.01,2013-01-27 15:59:00,
2013-01-27 10:00:00,48.6,23.5,29.38,WSW,257,2.7,2.7,37,0.00,,---,0.00,VWS V14.01,2013-01-27 16:00:00,
2013-01-27 10:01:00,48.9,23.8,29.38,NNE,17,4.0,4.0,37,0.00,,---,0.00,VWS V14.01,2013-01-27 16:01:00,
2013-01-27 10:02:00,49.3,24.1,29.38,SSE,163,0.0,4.0,37,0.00,,---,0.00,VWS V14.01,2013-01-27 16:02:00,
2013-01-27 10:03:00,49.6,24.5,29.38,SW,223,0.0,0.0,37,0.00,,---,0.00,VWS V14.01,2013-01-27 16:03:00,
2013-01-27 10:04:00,50.2,24.9,29.38,South,177,2.7,2.7,37,0.00,,---,0.00,VWS V14.01,2013-01-27 16:04:00,
2013-01-27 10:05:00,50.2,24.9,29.38,SSE,168,3.1,3.1,37,0.00,,---,0.00,VWS V14.01,2013-01-27 16:05:00,
2013-01-27 10:06:00,50.5,23.9,29.38,SW,233,3.6,4.5,35,0.00,,---,0.00,VWS V14.01,2013-01-27 16:06:00,
2013-01-27 10:07:00,50.5,23.9,29.38,SW,233,3.6,3.6,35,0.00,,---,0.00,VWS V14.01,2013-01-27 16:07:00,
2013-01-27 10:08:00,50.5,23.9,29.38,SW,233,3.6,3.6,35,0.00,,---,0.00,VWS V14.01,2013-01-27 16:08:00,
2013-01-27 10:09:00,50.9,22.8,29.38,South,181,2.2,2.2,33,0.00,,---,0.00,VWS V14.01,2013-01-27 16:09:00,
2013-01-27 10:10:00,51.1,22.3,29.38,South,181,2.2,2.2,32,0.00,,---,0.00,VWS V14.01,2013-01-27 16:10:00,
2013-01-27 10:11:00,51.1,22.3,29.38,South,181,2.2,2.2,32,0.00,,---,0.00,VWS V14.01,2013-01-27 16:11:00,
2013-01-27 10:12:00,51.4,21.1,29.38,NW,305,7.2,7.2,30,0.00,,---,0.00,VWS V14.01,2013-01-27 16:12:00,
2013-01-27 10:13:00,51.6,20.4,29.38,South,173,7.6,7.6,29,0.00,,---,0.00,VWS V14.01,2013-01-27 16:13:00,
2013-01-27 10:14:00,51.4,20.3,29.38,SSE,167,5.8,8.7,29,0.00,,---,0.00,VWS V14.01,2013-01-27 16:14:00,
2013-01-27 10:15:00,51.4,20.3,29.38,SSE,159,6.3,8.7,29,0.00,,---,0.00,VWS V14.01,2013-01-27 16:15:00,
2013-01-27 10:16:00,51.4,20.3,29.38,SE,146,4.0,6.3,29,0.00,,---,0.00,VWS V14.01,2013-01-27 16:16:00,
2013-01-27 10:17:00,51.6,20.4,29.38,SSE,167,5.4,5.4,29,0.00,,---,0.00,VWS V14.01,2013-01-27 16:17:00,
2013-01-27 10:18:00,51.6,20.4,29.38,South,170,4.0,5.4,29,0.00,,---,0.00,VWS V14.01,2013-01-27 16:18:00,
2013-01-27 10:19:00,52.2,20.9,29.38,South,170,4.0,4.0,29,0.00,,---,0.00,VWS V14.01,2013-01-27 16:19:00,
2013-01-27 10:20:00,52.2,20.9,29.38,SSW,202,7.2,7.2,29,0.00,,---,0.00,VWS V14.01,2013-01-27 16:20:00,
2013-01-27 10:21:00,52.5,21.2,29.38,SSW,202,7.2,7.2,29,0.00,,---,0.00,VWS V14.01,2013-01-27 16:21:00,
2013-01-27 10:22:00,52.5,21.2,29.38,SSW,202,7.2,7.2,29,0.00,,---,0.00,VWS V14.01,2013-01-27 16:22:00,
2013-01-27 10:23:00,52.5,20.4,29.38,SSW,202,7.2,7.2,28,0.00,,---,0.00,VWS V14.01,2013-01-27 16:23:00,
2013-01-27 10:24:00,52.5,20.4,29.38,South,169,6.3,8.7,28,0.00,,---,0.00,VWS V14.01,2013-01-27 16:24:00,
2013-01-27 10:25:00,52.5,20.4,29.38,SSE,166,3.6,6.3,28,0.00,,---,0.00,VWS V14.01,2013-01-27 16:25:00,
2013-01-27 10:26:00,52.7,20.5,29.38,SSE,166,3.6,3.6,28,0.00,,---,0.00,VWS V14.01,2013-01-27 16:26:00,
2013-01-27 10:27:00,52.7,20.5,29.38,SSE,152,3.6,4.0,28,0.00,,---,0.00,VWS V14.01,2013-01-27 16:27:00,
2013-01-27 10:28:00,52.7,20.5,29.38,South,187,5.8,5.8,28,0.00,,---,0.00,VWS V14.01,2013-01-27 16:28:00,
2013-01-27 10:29:00,52.7,20.5,29.38,South,187,5.8,5.8,28,0.00,,---,0.00,VWS V14.01,2013-01-27 16:29:00,
2013-01-27 10:30:00,52.7,20.5,29.38,South,174,5.4,5.8,28,0.00,,---,0.00,VWS V14.01,2013-01-27 16:30:00,
2013-01-27 10:31:00,52.7,19.7,29.38,SSE,160,7.6,7.6,27,0.00,,---,0.00,VWS V14.01,2013-01-27 16:31:00,
2013-01-27 10:32:00,52.7,19.7,29.38,SSE,160,7.6,7.6,27,0.00,,---,0.00,VWS V14.01,2013-01-27 16:32:00,
2013-01-27 10:33:00,52.7,19.7,29.38,SSE,168,4.0,7.6,27,0.00,,---,0.00,VWS V14.01,2013-01-27 16:33:00,
2013-01-27 10:34:00,52.7,19.7,29.38,NW,310,3.1,6.3,27,0.00,,---,0.00,VWS V14.01,2013-01-27 16:34:00,
2013-01-27 10:35:00,52.7,19.7,29.38,NW,310,3.1,3.1,27,0.00,,---,0.00,VWS V14.01,2013-01-27 16:35:00,
2013-01-27 10:36:00,52.7,19.7,29.38,SE,124,5.4,5.4,27,0.00,,---,0.00,VWS V14.01,2013-01-27 16:36:00,
2013-01-27 10:37:00,52.9,19.8,29.38,SSE,160,3.1,5.4,27,0.00,,---,0.00,VWS V14.01,2013-01-27 16:37:00,
2013-01-27 10:38:00,52.9,19.8,29.38,SSE,160,3.1,3.1,27,0.00,,---,0.00,VWS V14.01,2013-01-27 16:38:00,
2013-01-27 10:39:00,53.4,21.1,29.38,SE,138,3.1,3.6,28,0.00,,---,0.00,VWS V14.01,2013-01-27 16:39:00,
2013-01-27 10:40:00,53.4,21.1,29.38,SSE,168,5.8,5.8,28,0.00,,---,0.00,VWS V14.01,2013-01-27 16:40:00,
2013-01-27 10:41:00,53.8,20.6,29.38,SSE,168,5.8,5.8,27,0.00,,---,0.00,VWS V14.01,2013-01-27 16:41:00,
2013-01-27 10:42:00,54.0,20.8,29.38,SSE,155,3.6,5.8,27,0.00,,---,0.00,VWS V14.01,2013-01-27 16:42:00,
2013-01-27 10:43:00,54.3,21.1,29.38,SSE,155,3.6,3.6,27,0.00,,---,0.00,VWS V14.01,2013-01-27 16:43:00,
2013-01-27 10:44:00,54.5,21.2,29.38,ESE,122,5.4,9.2,27,0.00,,---,0.00,VWS V14.01,2013-01-27 16:44:00,
2013-01-27 10:45:00,54.5,21.2,29.38,South,172,8.1,8.1,27,0.00,,---,0.00,VWS V14.01,2013-01-27 16:45:00,
2013-01-27 10:46:00,54.5,21.2,29.38,South,187,6.3,8.1,27,0.00,,---,0.00,VWS V14.01,2013-01-27 16:46:00,
2013-01-27 10:47:00,54.5,20.3,29.38,South,187,6.3,6.3,26,0.00,,---,0.00,VWS V14.01,2013-01-27 16:47:00,
2013-01-27 10:48:00,54.5,20.3,29.38,SSE,168,2.7,6.3,26,0.00,,---,0.00,VWS V14.01,2013-01-27 16:48:00,
2013-01-27 10:49:00,54.5,20.3,29.38,SSE,162,7.6,8.3,26,0.00,,---,0.00,VWS V14.01,2013-01-27 16:49:00,
2013-01-27 10:50:00,54.3,20.2,29.38,South,180,13.2,13.2,26,0.00,,---,0.00,VWS V14.01,2013-01-27 16:50:00,
2013-01-27 10:51:00,54.3,20.2,29.38,South,179,8.1,13.2,26,0.00,,---,0.00,VWS V14.01,2013-01-27 16:51:00,
2013-01-27 10:52:00,53.6,19.6,29.38,SE,127,5.8,8.1,26,0.00,,---,0.00,VWS V14.01,2013-01-27 16:52:00,
2013-01-27 10:53:00,53.2,19.3,29.38,SE,127,5.8,5.8,26,0.00,,---,0.00,VWS V14.01,2013-01-27 16:53:00,
2013-01-27 10:54:00,53.2,19.3,29.38,SE,129,8.3,8.3,26,0.00,,---,0.00,VWS V14.01,2013-01-27 16:54:00,
2013-01-27 10:55:00,52.9,19.8,29.38,South,186,8.1,8.1,27,0.00,,---,0.00,VWS V14.01,2013-01-27 16:55:00,
2013-01-27 10:56:00,52.7,19.7,29.38,South,187,10.5,10.5,27,0.00,,---,0.00,VWS V14.01,2013-01-27 16:56:00,
2013-01-27 10:57:00,52.5,19.5,29.38,South,173,12.3,12.3,27,0.00,,---,0.00,VWS V14.01,2013-01-27 16:57:00,
2013-01-27 10:58:00,52.2,19.2,29.38,South,173,12.3,12.3,27,0.00,,---,0.00,VWS V14.01,2013-01-27 16:58:00,
2013-01-27 10:59:00,52.0,19.1,29.38,SSE,149,8.7,12.3,27,0.00,,---,0.00,VWS V14.01,2013-01-27 16:59:00,
2013-01-27 11:00:00,51.8,18.9,29.38,SE,144,8.7,8.7,27,0.00,,---,0.00,VWS V14.01,2013-01-27 17:00:00,
2013-01-27 11:01:00,51.8,18.9,29.38,SE,144,8.7,8.7,27,0.00,,---,0.00,VWS V14.01,2013-01-27 17:01:00,
2013-01-27 11:02:00,51.6,18.8,29.38,SE,144,8.7,8.7,27,0.00,,---,0.00,VWS V14.01,2013-01-27 17:02:00,
2013-01-27 11:03:00,51.6,18.8,29.38,SE,138,8.1,10.5,27,0.00,,---,0.00,VWS V14.01,2013-01-27 17:03:00,
2013-01-27 11:04:00,51.6,18.8,29.38,SSE,158,6.3,8.1,27,0.00,,---,0.00,VWS V14.01,2013-01-27 17:04:00,
2013-01-27 11:05:00,51.6,18.8,29.38,South,169,11.0,11.0,27,0.00,,---,0.00,VWS V14.01,2013-01-27 17:05:00,
2013-01-27 11:06:00,51.6,18.8,29.38,SSW,211,6.3,11.0,27,0.00,,---,0.00,VWS V14.01,2013-01-27 17:06:00,
2013-01-27 11:07:00,51.6,18.8,29.38,SSE,153,7.6,7.6,27,0.00,,---,0.00,VWS V14.01,2013-01-27 17:07:00,
2013-01-27 11:08:00,51.6,18.8,29.38,SSE,155,8.3,8.3,27,0.00,,---,0.00,VWS V14.01,2013-01-27 17:08:00,
2013-01-27 11:09:00,51.6,18.8,29.38,South,176,7.6,8.3,27,0.00,,---,0.00,VWS V14.01,2013-01-27 17:09:00,
2013-01-27 11:10:00,51.6,18.8,29.38,South,176,7.6,7.6,27,0.00,,---,0.00,VWS V14.01,2013-01-27 17:10:00,
2013-01-27 11:11:00,51.6,18.8,29.38,SE,134,8.1,8.1,27,0.00,,---,0.00,VWS V14.01,2013-01-27 17:11:00,
2013-01-27 11:12:00,51.6,18.8,29.38,SSE,153,4.9,8.1,27,0.00,,---,0.00,VWS V14.01,2013-01-27 17:12:00,
2013-01-27 11:13:00,51.6,18.8,29.38,SSE,153,4.9,4.9,27,0.00,,---,0.00,VWS V14.01,2013-01-27 17:13:00,
2013-01-27 11:14:00,51.6,18.8,29.38,SE,137,4.0,4.9,27,0.00,,---,0.00,VWS V14.01,2013-01-27 17:14:00,
2013-01-27 11:15:00,51.8,18.9,29.38,SE,137,4.0,4.0,27,0.00,,---,0.00,VWS V14.01,2013-01-27 17:15:00,
2013-01-27 11:16:00,52.0,19.1,29.38,SE,137,4.0,4.0,27,0.00,,---,0.00,VWS V14.01,2013-01-27 17:16:00,
2013-01-27 11:17:00,52.0,19.1,29.38,ESE,122,4.0,4.0,27,0.00,,---,0.00,VWS V14.01,2013-01-27 17:17:00,
2013-01-27 11:18:00,52.2,20.1,29.38,ESE,122,4.0,4.0,28,0.00,,---,0.00,VWS V14.01,2013-01-27 17:18:00,
2013-01-27 11:19:00,52.3,19.4,29.38,South,175,5.4,5.4,27,0.00,,---,0.00,VWS V14.01,2013-01-27 17:19:00,
2013-01-27 11:20:00,52.3,19.4,29.38,SSE,158,7.6,7.6,27,0.00,,---,0.00,VWS V14.01,2013-01-27 17:20:00,
2013-01-27 11:21:00,52.3,19.4,29.38,South,175,5.4,7.6,27,0.00,,---,0.00,VWS V14.01,2013-01-27 17:21:00,
2013-01-27 11:22:00,52.3,19.4,29.38,ESE,113,3.6,5.4,27,0.00,,---,0.00,VWS V14.01,2013-01-27 17:22:00,
2013-01-27 11:23:00,52.3,19.4,29.38,SSE,155,7.6,7.6,27,0.00,,---,0.00,VWS V14.01,2013-01-27 17:23:00,
2013-01-27 11:24:00,52.3,19.4,29.38,SSE,164,6.3,7.6,27,0.00,,---,0.00,VWS V14.01,2013-01-27 17:24:00,
2013-01-27 11:25:00,52.3,19.4,29.38,SSE,151,7.6,8.7,27,0.00,,---,0.00,VWS V14.01,2013-01-27 17:25:00,
2013-01-27 11:26:00,52.3,19.4,29.38,SSE,151,7.6,7.6,27,0.00,,---,0.00,VWS V14.01,2013-01-27 17:26:00,
2013-01-27 11:27:00,52.3,19.4,29.38,SSE,151,7.6,7.6,27,0.00,,---,0.00,VWS V14.01,2013-01-27 17:27:00,
2013-01-27 11:28:00,52.3,19.4,29.38,SSE,163,7.2,7.6,27,0.00,,---,0.00,VWS V14.01,2013-01-27 17:28:00,
2013-01-27 11:29:00,52.2,19.2,29.38,SSE,159,5.8,7.2,27,0.00,,---,0.00,VWS V14.01,2013-01-27 17:29:00,
2013-01-27 11:30:00,52.2,19.2,29.38,South,184,7.6,7.6,27,0.00,,---,0.00,VWS V14.01,2013-01-27 17:30:00,
2013-01-27 11:31:00,52.2,19.2,29.38,South,174,7.6,7.6,27,0.00,,---,0.00,VWS V14.01,2013-01-27 17:31:00,
2013-01-27 11:32:00,52.2,19.2,29.38,South,176,7.6,7.6,27,0.00,,---,0.00,VWS V14.01,2013-01-27 17:32:00,
2013-01-27 11:33:00,52.2,19.2,29.38,South,176,7.6,7.6,27,0.00,,---,0.00,VWS V14.01,2013-01-27 17:33:00,
2013-01-27 11:34:00,52.2,19.2,29.38,SSE,164,9.6,9.6,27,0.00,,---,0.00,VWS V14.01,2013-01-27 17:34:00,
2013-01-27 11:35:00,52.2,19.2,29.38,SSE,157,4.0,9.6,27,0.00,,---,0.00,VWS V14.01,2013-01-27 17:35:00,
2013-01-27 11:36:00,52.3,19.4,29.38,South,170,10.5,10.5,27,0.00,,---,0.00,VWS V14.01,2013-01-27 17:36:00,
2013-01-27 11:37:00,52.3,19.4,29.38,South,183,5.8,10.5,27,0.00,,---,0.00,VWS V14.01,2013-01-27 17:37:00,
2013-01-27 11:38:00,52.3,19.4,29.38,SSE,149,4.0,7.6,27,0.00,,---,0.00,VWS V14.01,2013-01-27 17:38:00,
2013-01-27 11:39:00,52.5,19.5,29.38,SE,139,4.9,4.9,27,0.00,,---,0.00,VWS V14.01,2013-01-27 17:39:00,
2013-01-27 11:40:00,52.7,19.7,29.38,SE,139,5.4,5.4,27,0.00,,---,0.00,VWS V14.01,2013-01-27 17:40:00,
2013-01-27 11:41:00,52.7,19.7,29.35,SE,139,5.4,5.4,27,0.00,,---,0.00,VWS V14.01,2013-01-27 17:41:00,
2013-01-27 11:42:00,52.7,19.7,29.35,SE,139,5.4,5.4,27,0.00,,---,0.00,VWS V14.01,2013-01-27 17:42:00,
2013-01-27 11:43:00,52.9,19.8,29.35,SE,139,5.4,5.4,27,0.00,,---,0.00,VWS V14.01,2013-01-27 17:43:00,
2013-01-27 11:44:00,53.1,20.0,29.35,SSE,158,8.3,8.3,27,0.00,,---,0.00,VWS V14.01,2013-01-27 17:44:00,
2013-01-27 11:45:00,53.1,20.0,29.35,South,181,6.3,6.3,27,0.00,,---,0.00,VWS V14.01,2013-01-27 17:45:00,
2013-01-27 11:46:00,53.1,20.0,29.35,SSE,160,6.3,7.6,27,0.00,,---,0.00,VWS V14.01,2013-01-27 17:46:00,
2013-01-27 11:47:00,52.9,19.8,29.35,SSE,160,6.3,6.3,27,0.00,,---,0.00,VWS V14.01,2013-01-27 17:47:00,
2013-01-27 11:48:00,52.9,19.8,29.35,South,183,8.3,8.3,27,0.00,,---,0.00,VWS V14.01,2013-01-27 17:48:00,
2013-01-27 11:49:00,53.1,20.0,29.35,SSE,157,5.8,8.3,27,0.00,,---,0.00,VWS V14.01,2013-01-27 17:49:00,
2013-01-27 11:50:00,53.1,20.0,29.35,SE,140,5.4,5.8,27,0.00,,---,0.00,VWS V14.01,2013-01-27 17:50:00,
2013-01-27 11:51:00,53.1,20.0,29.35,SSE,163,5.4,5.4,27,0.00,,---,0.00,VWS V14.01,2013-01-27 17:51:00,
2013-01-27 11:52:00,53.1,20.0,29.35,SSE,163,5.4,5.4,27,0.00,,---,0.00,VWS V14.01,2013-01-27 17:52:00,
2013-01-27 11:53:00,53.2,20.1,29.35,SE,129,4.0,5.4,27,0.00,,---,0.00,VWS V14.01,2013-01-27 17:53:00,
2013-01-27 11:54:00,53.2,20.1,29.35,SE,145,3.6,4.0,27,0.00,,---,0.00,VWS V14.01,2013-01-27 17:54:00,
2013-01-27 11:55:00,53.4,20.3,29.35,South,174,6.3,6.3,27,0.00,,---,0.00,VWS V14.01,2013-01-27 17:55:00,
2013-01-27 11:56:00,53.4,20.3,29.35,South,174,6.3,6.3,27,0.00,,---,0.00,VWS V14.01,2013-01-27 17:56:00,
2013-01-27 11:57:00,53.6,20.5,29.35,ESE,116,7.6,7.6,27,0.00,,---,0.00,VWS V14.01,2013-01-27 17:57:00,
2013-01-27 11:58:00,54.0,20.8,29.35,SE,140,3.1,7.6,27,0.00,,---,0.00,VWS V14.01,2013-01-27 17:58:00,
2013-01-27 11:59:00,54.0,19.9,29.35,ENE,72,3.1,3.1,26,0.00,,---,0.00,VWS V14.01,2013-01-27 17:59:00,
2013-01-27 12:00:00,54.1,20.0,29.35,ENE,72,3.1,3.1,26,0.00,,---,0.00,VWS V14.01,2013-01-27 18:00:00,
2013-01-27 12:01:00,54.0,19.9,29.35,ENE,72,3.1,3.1,26,0.00,,---,0.00,VWS V14.01,2013-01-27 18:01:00,
2013-01-27 12:02:00,54.1,20.0,29.35,SSE,164,4.0,4.0,26,0.00,,---,0.00,VWS V14.01,2013-01-27 18:02:00,
2013-01-27 12:03:00,54.1,20.0,29.35,SSE,149,3.6,4.0,26,0.00,,---,0.00,VWS V14.01,2013-01-27 18:03:00,
2013-01-27 12:04:00,54.1,20.0,29.35,SE,138,5.8,7.6,26,0.00,,---,0.00,VWS V14.01,2013-01-27 18:04:00,
2013-01-27 12:05:00,54.0,19.9,29.35,SE,136,4.0,4.0,26,0.00,,---,0.00,VWS V14.01,2013-01-27 18:05:00,
2013-01-27 12:06:00,54.0,19.9,29.35,SE,136,4.0,4.0,26,0.00,,---,0.00,VWS V14.01,2013-01-27 18:06:00,
2013-01-27 12:07:00,54.0,19.9,29.35,SE,136,4.0,4.0,26,0.00,,---,0.00,VWS V14.01,2013-01-27 18:07:00,
2013-01-27 12:08:00,54.0,19.9,29.35,South,170,3.6,5.8,26,0.00,,---,0.00,VWS V14.01,2013-01-27 18:08:00,
2013-01-27 12:09:00,53.8,19.7,29.35,SSE,151,5.4,5.4,26,0.00,,---,0.00,VWS V14.01,2013-01-27 18:09:00,
2013-01-27 12:10:00,53.8,19.7,29.35,SSE,151,5.4,5.4,26,0.00,,---,0.00,VWS V14.01,2013-01-27 18:10:00,
2013-01-27 12:11:00,53.8,19.7,29.35,SSE,151,5.4,5.4,26,0.00,,---,0.00,VWS V14.01,2013-01-27 18:11:00,
2013-01-27 12:12:00,53.6,19.6,29.35,SSE,156,5.8,6.3,26,0.00,,---,0.00,VWS V14.01,2013-01-27 18:12:00,
2013-01-27 12:13:00,53.4,20.3,29.35,SSE,156,5.8,5.8,27,0.00,,---,0.00,VWS V14.01,2013-01-27 18:13:00,
2013-01-27 12:14:00,53.4,19.4,29.35,South,186,5.8,5.8,26,0.00,,---,0.00,VWS V14.01,2013-01-27 18:14:00,
2013-01-27 12:15:00,53.4,19.4,29.35,South,180,9.6,9.6,26,0.00,,---,0.00,VWS V14.01,2013-01-27 18:15:00,
2013-01-27 12:16:00,53.2,20.1,29.35,South,174,6.3,9.6,27,0.00,,---,0.00,VWS V14.01,2013-01-27 18:16:00,
2013-01-27 12:17:00,53.1,20.0,29.35,South,174,6.3,6.3,27,0.00,,---,0.00,VWS V14.01,2013-01-27 18:17:00,
2013-01-27 12:18:00,53.1,20.0,29.35,SSE,148,7.6,7.6,27,0.00,,---,0.00,VWS V14.01,2013-01-27 18:18:00,
2013-01-27 12:19:00,53.1,20.0,29.35,SSE,166,7.6,7.6,27,0.00,,---,0.00,VWS V14.01,2013-01-27 18:19:00,
2013-01-27 12:20:00,52.9,19.8,29.35,SSE,162,10.1,10.1,27,0.00,,---,0.00,VWS V14.01,2013-01-27 18:20:00,
2013-01-27 12:21:00,52.9,19.8,29.35,SSE,162,7.2,10.1,27,0.00,,---,0.00,VWS V14.01,2013-01-27 18:21:00,
2013-01-27 12:22:00,52.7,19.7,29.35,SSE,162,7.2,7.2,27,0.00,,---,0.00,VWS V14.01,2013-01-27 18:22:00,
2013-01-27 12:23:00,52.5,19.5,29.35,SSE,162,7.2,7.2,27,0.00,,---,0.00,VWS V14.01,2013-01-27 18:23:00,
2013-01-27 12:24:00,52.5,19.5,29.35,SSE,153,5.4,5.4,27,0.00,,---,0.00,VWS V14.01,2013-01-27 18:24:00,
2013-01-27 12:25:00,52.5,19.5,29.35,SE,128,6.3,6.3,27,0.00,,---,0.00,VWS V14.01,2013-01-27 18:25:00,
2013-01-27 12:26:00,52.3,19.4,29.35,SE,128,6.3,6.3,27,0.00,,---,0.00,VWS V14.01,2013-01-27 18:26:00,
2013-01-27 12:27:00,52.3,19.4,29.35,South,171,4.0,4.0,27,0.00,,---,0.00,VWS V14.01,2013-01-27 18:27:00,
2013-01-27 12:28:00,52.3,19.4,29.35,South,171,4.0,4.0,27,0.00,,---,0.00,VWS V14.01,2013-01-27 18:28:00,
2013-01-27 12:29:00,52.3,19.4,29.35,South,173,7.6,7.6,27,0.00,,---,0.00,VWS V14.01,2013-01-27 18:29:00,
2013-01-27 12:30:00,52.3,19.4,29.35,SSE,167,5.8,7.6,27,0.00,,---,0.00,VWS V14.01,2013-01-27 18:30:00,
2013-01-27 12:31:00,52.3,19.4,29.35,South,191,10.1,10.1,27,0.00,,---,0.00,VWS V14.01,2013-01-27 18:31:00,
2013-01-27 12:32:00,52.3,19.4,29.35,South,191,10.1,10.1,27,0.00,,---,0.00,VWS V14.01,2013-01-27 18:32:00,
2013-01-27 12:33:00,52.3,19.4,29.35,SSE,156,4.0,6.3,27,0.00,,---,0.00,VWS V14.01,2013-01-27 18:33:00,
2013-01-27 12:34:00,52.2,19.2,29.35,SSE,156,4.0,4.0,27,0.00,,---,0.00,VWS V14.01,2013-01-27 18:34:00,
2013-01-27 12:35:00,52.2,19.2,29.35,SSE,163,5.8,5.8,27,0.00,,---,0.00,VWS V14.01,2013-01-27 18:35:00,
2013-01-27 12:36:00,52.2,19.2,29.35,SSE,163,5.8,5.8,27,0.00,,---,0.00,VWS V14.01,2013-01-27 18:36:00,
2013-01-27 12:37:00,52.3,19.4,29.35,SSE,157,8.1,8.1,27,0.00,,---,0.00,VWS V14.01,2013-01-27 18:37:00,
2013-01-27 12:38:00,52.2,19.2,29.35,South,177,8.1,8.3,27,0.00,,---,0.00,VWS V14.01,2013-01-27 18:38:00,
2013-01-27 12:39:00,52.2,19.2,29.35,SSE,149,5.8,8.1,27,0.00,,---,0.00,VWS V14.01,2013-01-27 18:39:00,
2013-01-27 12:40:00,52.2,19.2,29.35,SW,229,3.6,5.8,27,0.00,,---,0.00,VWS V14.01,2013-01-27 18:40:00,
2013-01-27 12:41:00,52.2,19.2,29.35,South,179,11.0,11.0,27,0.00,,---,0.00,VWS V14.01,2013-01-27 18:41:00,
2013-01-27 12:42:00,52.2,19.2,29.35,South,179,11.0,11.0,27,0.00,,---,0.00,VWS V14.01,2013-01-27 18:42:00,
2013-01-27 12:43:00,52.2,19.2,29.35,South,179,11.0,11.0,27,0.00,,---,0.00,VWS V14.01,2013-01-27 18:43:00,
2013-01-27 12:44:00,52.2,19.2,29.35,SSE,160,6.3,11.0,27,0.00,,---,0.00,VWS V14.01,2013-01-27 18:44:00,
2013-01-27 12:45:00,52.2,19.2,29.35,SSE,160,6.3,6.3,27,0.00,,---,0.00,VWS V14.01,2013-01-27 18:45:00,
2013-01-27 12:46:00,52.2,19.2,29.35,SSE,159,5.8,6.3,27,0.00,,---,0.00,VWS V14.01,2013-01-27 18:46:00,
2013-01-27 12:47:00,52.2,19.2,29.35,South,174,7.2,8.7,27,0.00,,---,0.00,VWS V14.01,2013-01-27 18:47:00,
2013-01-27 12:48:00,52.0,19.1,29.35,South,174,7.2,7.2,27,0.00,,---,0.00,VWS V14.01,2013-01-27 18:48:00,
2013-01-27 12:49:00,52.0,19.1,29.35,SSE,160,5.8,7.2,27,0.00,,---,0.00,VWS V14.01,2013-01-27 18:49:00,
2013-01-27 12:50:00,52.0,19.1,29.35,West,273,4.0,5.8,27,0.00,,---,0.00,VWS V14.01,2013-01-27 18:50:00,
2013-01-27 12:51:00,52.0,19.1,29.35,WNW,293,3.6,3.6,27,0.00,,---,0.00,VWS V14.01,2013-01-27 18:51:00,
2013-01-27 12:52:00,52.0,19.1,29.35,WNW,293,3.6,3.6,27,0.00,,---,0.00,VWS V14.01,2013-01-27 18:52:00,
2013-01-27 12:53:00,52.0,19.1,29.35,WNW,293,3.6,3.6,27,0.00,,---,0.00,VWS V14.01,2013-01-27 18:53:00,
2013-01-27 12:55:00,52.0,19.1,29.35,SSE,158,4.0,6.3,27,0.00,,---,0.00,VWS V14.01,2013-01-27 18:55:00,
2013-01-27 13:01:00,51.6,18.8,29.35,SSE,156,5.4,5.4,27,0.00,,---,0.00,VWS V14.01,2013-01-27 19:01:00,
2013-01-27 13:06:00,51.6,18.8,29.35,South,175,8.7,8.7,27,0.00,,---,0.00,VWS V14.01,2013-01-27 19:06:00,
2013-01-27 13:11:00,51.4,18.6,29.32,South,186,7.6,8.3,27,0.00,,---,0.00,VWS V14.01,2013-01-27 19:11:00,
2013-01-27 13:12:00,51.4,18.6,29.32,South,186,7.6,8.3,27,0.00,,---,0.00,VWS V14.01,2013-01-27 19:12:00,
2013-01-27 13:16:00,51.1,18.3,29.32,SSE,166,3.6,5.8,27,0.00,,---,0.00,VWS V14.01,2013-01-27 19:16:00,
2013-01-27 13:17:00,51.3,18.4,29.32,South,181,5.4,5.8,27,0.00,,---,0.00,VWS V14.01,2013-01-27 19:17:00,
2013-01-27 13:21:00,51.3,18.4,29.32,South,190,10.1,10.1,27,0.00,,---,0.00,VWS V14.01,2013-01-27 19:21:00,
2013-01-27 13:22:00,51.3,18.4,29.32,SE,140,4.0,10.1,27,0.00,,---,0.00,VWS V14.01,2013-01-27 19:22:00,
2013-01-27 13:26:00,51.3,18.4,29.32,SSE,159,3.6,4.0,27,0.00,,---,0.00,VWS V14.01,2013-01-27 19:26:00,
2013-01-27 13:27:00,51.3,18.4,29.32,SSE,150,5.4,5.4,27,0.00,,---,0.00,VWS V14.01,2013-01-27 19:27:00,
2013-01-27 13:32:00,51.3,18.4,29.32,SSE,157,7.2,8.3,27,0.00,,---,0.00,VWS V14.01,2013-01-27 19:32:00,
2013-01-27 13:37:00,51.1,18.3,29.32,SSE,161,3.1,6.3,27,0.00,,---,0.00,VWS V14.01,2013-01-27 19:37:00,
2013-01-27 13:38:00,51.1,18.3,29.35,SE,140,3.6,5.4,27,0.00,,---,0.00,VWS V14.01,2013-01-27 19:38:00,
2013-01-27 13:42:00,50.9,18.1,29.35,SSE,168,5.8,6.3,27,0.00,,---,0.00,VWS V14.01,2013-01-27 19:42:00,
2013-01-27 13:43:00,50.7,18.0,29.35,SE,130,7.6,7.6,27,0.00,,---,0.00,VWS V14.01,2013-01-27 19:43:00,
2013-01-27 13:47:00,50.7,18.0,29.35,SSE,147,8.3,8.3,27,0.00,,---,0.00,VWS V14.01,2013-01-27 19:47:00,
2013-01-27 13:48:00,50.5,17.8,29.35,SSE,162,5.8,5.8,27,0.00,,---,0.00,VWS V14.01,2013-01-27 19:48:00,
2013-01-27 13:52:00,50.5,17.8,29.35,SSE,163,5.8,7.6,27,0.00,,---,0.00,VWS V14.01,2013-01-27 19:52:00,
2013-01-27 13:53:00,50.5,18.7,29.32,SSE,162,7.6,7.6,28,0.00,,---,0.00,VWS V14.01,2013-01-27 19:53:00,
2013-01-27 13:57:00,50.4,18.5,29.32,SE,146,3.6,3.6,28,0.00,,---,0.00,VWS V14.01,2013-01-27 19:57:00,
2013-01-27 13:58:00,50.4,18.5,29.32,SE,144,2.7,4.0,28,0.00,,---,0.00,VWS V14.01,2013-01-27 19:58:00,
2013-01-27 14:02:00,50.4,18.5,29.32,SSE,157,4.0,5.4,28,0.00,,---,0.00,VWS V14.01,2013-01-27 20:02:00,
2013-01-27 14:03:00,50.4,18.5,29.32,South,171,3.6,3.6,28,0.00,,---,0.00,VWS V14.01,2013-01-27 20:03:00,
2013-01-27 14:07:00,50.4,18.5,29.32,SSW,193,5.8,6.3,28,0.00,,---,0.00,VWS V14.01,2013-01-27 20:07:00,
2013-01-27 14:08:00,50.4,18.5,29.35,SSE,151,3.6,5.8,28,0.00,,---,0.00,VWS V14.01,2013-01-27 20:08:00,
2013-01-27 14:12:00,50.2,18.4,29.35,SSE,160,3.1,3.1,28,0.00,,---,0.00,VWS V14.01,2013-01-27 20:12:00,
2013-01-27 14:13:00,50.2,18.4,29.35,SE,129,5.8,5.8,28,0.00,,---,0.00,VWS V14.01,2013-01-27 20:13:00,
2013-01-27 14:17:00,50.2,18.4,29.35,SE,133,3.6,3.6,28,0.00,,---,0.00,VWS V14.01,2013-01-27 20:17:00,
2013-01-27 14:18:00,50.2,19.2,29.35,South,176,5.8,5.8,29,0.00,,---,0.00,VWS V14.01,2013-01-27 20:18:00,
2013-01-27 14:22:00,50.2,19.2,29.35,NNE,15,7.6,7.6,29,0.00,,---,0.00,VWS V14.01,2013-01-27 20:22:00,
2013-01-27 14:23:00,50.2,19.2,29.35,NNW,330,3.1,7.6,29,0.00,,---,0.00,VWS V14.01,2013-01-27 20:23:00,
2013-01-27 14:27:00,50.0,18.2,29.35,SSE,158,3.1,4.0,28,0.00,,---,0.00,VWS V14.01,2013-01-27 20:27:00,
2013-01-27 14:28:00,50.0,18.2,29.35,South,172,4.0,4.0,28,0.00,,---,0.00,VWS V14.01,2013-01-27 20:28:00,
2013-01-27 14:29:00,50.0,19.0,29.35,South,175,6.3,6.3,29,0.00,,---,0.00,VWS V14.01,2013-01-27 20:29:00,
2013-01-27 14:33:00,50.0,18.2,29.35,South,176,5.4,5.4,28,0.00,,---,0.00,VWS V14.01,2013-01-27 20:33:00,
2013-01-27 14:34:00,50.0,18.2,29.35,SSE,162,5.4,8.1,28,0.00,,---,0.00,VWS V14.01,2013-01-27 20:34:00,
2013-01-27 14:38:00,50.0,19.0,29.35,SSE,156,4.9,4.9,29,0.00,,---,0.00,VWS V14.01,2013-01-27 20:38:00,
2013-01-27 14:39:00,50.2,19.2,29.35,SSE,147,6.3,8.1,29,0.00,,---,0.00,VWS V14.01,2013-01-27 20:39:00,
2013-01-27 14:43:00,50.2,19.2,29.35,SSE,154,6.3,8.1,29,0.00,,---,0.00,VWS V14.01,2013-01-27 20:43:00,
2013-01-27 14:44:00,50.2,19.2,29.35,SSE,167,8.1,8.1,29,0.00,,---,0.00,VWS V14.01,2013-01-27 20:44:00,
2013-01-27 14:48:00,50.0,19.0,29.35,SSE,151,6.3,6.3,29,0.00,,---,0.00,VWS V14.01,2013-01-27 20:48:00,
2013-01-27 14:49:00,50.0,19.0,29.35,ESE,106,5.8,6.3,29,0.00,,---,0.00,VWS V14.01,2013-01-27 20:49:00,
2013-01-27 14:53:00,50.0,19.0,29.35,SSE,156,3.6,3.6,29,0.00,,---,0.00,VWS V14.01,2013-01-27 20:53:00,
2013-01-27 14:54:00,50.0,19.0,29.35,SSE,157,3.1,3.6,29,0.00,,---,0.00,VWS V14.01,2013-01-27 20:54:00,
2013-01-27 14:58:00,50.0,19.0,29.35,South,191,3.6,6.3,29,0.00,,---,0.00,VWS V14.01,2013-01-27 20:58:00,
2013-01-27 14:59:00,50.0,19.0,29.35,South,191,3.6,6.3,29,0.00,,---,0.00,VWS V14.01,2013-01-27 20:59:00,
2013-01-27 15:04:00,50.0,19.0,29.35,South,176,5.4,8.3,29,0.00,,---,0.00,VWS V14.01,2013-01-27 21:04:00,
2013-01-27 15:09:00,49.8,18.9,29.35,SSE,149,2.2,3.6,29,0.00,,---,0.00,VWS V14.01,2013-01-27 21:09:00,
2013-01-27 15:14:00,49.8,19.6,29.35,SE,137,4.0,4.0,30,0.00,,---,0.00,VWS V14.01,2013-01-27 21:14:00,
2013-01-27 15:19:00,49.8,19.6,29.35,SE,131,3.1,3.6,30,0.00,,---,0.00,VWS V14.01,2013-01-27 21:19:00,
2013-01-27 15:24:00,49.6,19.5,29.35,SSE,148,6.3,6.3,30,0.00,,---,0.00,VWS V14.01,2013-01-27 21:24:00,
2013-01-27 15:29:00,49.5,19.3,29.35,SSE,162,6.7,6.7,30,0.00,,---,0.00,VWS V14.01,2013-01-27 21:29:00,
2013-01-27 15:34:00,49.5,19.3,29.35,South,170,3.6,3.6,30,0.00,,---,0.00,VWS V14.01,2013-01-27 21:34:00,
2013-01-27 15:39:00,49.3,19.2,29.35,SE,142,2.7,2.7,30,0.00,,---,0.00,VWS V14.01,2013-01-27 21:39:00,
2013-01-27 15:40:00,49.3,19.2,29.35,SSE,155,2.7,3.1,30,0.00,,---,0.00,VWS V14.01,2013-01-27 21:40:00,
2013-01-27 15:44:00,49.3,19.9,29.35,ESE,121,3.6,3.6,31,0.00,,---,0.00,VWS V14.01,2013-01-27 21:44:00,
2013-01-27 15:45:00,49.1,19.8,29.35,SE,143,2.7,3.6,31,0.00,,---,0.00,VWS V14.01,2013-01-27 21:45:00,
2013-01-27 15:49:00,49.1,19.8,29.35,SSE,157,5.4,5.4,31,0.00,,---,0.00,VWS V14.01,2013-01-27 21:49:00,
2013-01-27 15:50:00,49.1,19.8,29.35,SE,130,6.3,6.3,31,0.00,,---,0.00,VWS V14.01,2013-01-27 21:50:00,
2013-01-27 15:54:00,48.9,19.6,29.35,SSE,156,4.0,4.0,31,0.00,,---,0.00,VWS V14.01,2013-01-27 21:54:00,
2013-01-27 15:55:00,48.9,19.6,29.35,SSE,163,3.6,4.0,31,0.00,,---,0.00,VWS V14.01,2013-01-27 21:55:00,
2013-01-27 15:59:00,48.9,19.6,29.35,South,170,4.0,4.5,31,0.00,,---,0.00,VWS V14.01,2013-01-27 21:59:00,
2013-01-27 16:00:00,48.9,19.6,29.35,SSE,160,4.9,4.9,31,0.00,,---,0.00,VWS V14.01,2013-01-27 22:00:00,
2013-01-27 16:04:00,48.7,19.5,29.35,SSE,151,7.6,7.6,31,0.00,,---,0.00,VWS V14.01,2013-01-27 22:04:00,
2013-01-27 16:05:00,48.7,19.5,29.35,SE,128,6.3,7.6,31,0.00,,---,0.00,VWS V14.01,2013-01-27 22:05:00,
2013-01-27 16:10:00,48.6,19.3,29.35,SSE,151,4.0,4.0,31,0.00,,---,0.00,VWS V14.01,2013-01-27 22:10:00,
2013-01-27 16:15:00,48.6,19.3,29.35,SSE,149,5.8,6.7,31,0.00,,---,0.00,VWS V14.01,2013-01-27 22:15:00,
2013-01-27 16:20:00,48.4,19.2,29.35,South,169,4.5,5.8,31,0.00,,---,0.00,VWS V14.01,2013-01-27 22:20:00,
2013-01-27 16:25:00,48.4,19.2,29.35,SSE,152,3.1,3.1,31,0.00,,---,0.00,VWS V14.01,2013-01-27 22:25:00,
2013-01-27 16:30:00,48.4,19.2,29.35,SE,135,3.1,4.0,31,0.00,,---,0.00,VWS V14.01,2013-01-27 22:30:00,
2013-01-27 16:31:00,48.4,19.2,29.35,SSE,156,3.6,3.6,31,0.00,,---,0.00,VWS V14.01,2013-01-27 22:31:00,
2013-01-27 16:35:00,48.2,19.7,29.35,SSE,159,5.8,5.8,32,0.00,,---,0.00,VWS V14.01,2013-01-27 22:35:00,
2013-01-27 16:36:00,48.2,19.7,29.35,SSE,168,4.0,5.8,32,0.00,,---,0.00,VWS V14.01,2013-01-27 22:36:00,
2013-01-27 16:40:00,48.2,19.0,29.35,SSE,167,5.8,5.8,31,0.00,,---,0.00,VWS V14.01,2013-01-27 22:40:00,
2013-01-27 16:41:00,48.2,19.7,29.35,SE,135,5.4,5.8,32,0.00,,---,0.00,VWS V14.01,2013-01-27 22:41:00,
2013-01-27 16:45:00,48.2,19.7,29.35,SSE,157,2.7,3.1,32,0.00,,---,0.00,VWS V14.01,2013-01-27 22:45:00,
2013-01-27 16:46:00,48.2,19.7,29.35,SSE,162,4.0,4.0,32,0.00,,---,0.00,VWS V14.01,2013-01-27 22:46:00,
2013-01-27 16:50:00,48.0,19.6,29.35,SSE,157,4.0,4.0,32,0.00,,---,0.00,VWS V14.01,2013-01-27 22:50:00,
2013-01-27 16:51:00,48.0,19.6,29.35,SSE,157,2.7,4.0,32,0.00,,---,0.00,VWS V14.01,2013-01-27 22:51:00,
2013-01-27 16:55:00,48.0,19.6,29.35,SSE,162,4.0,4.5,32,0.00,,---,0.00,VWS V14.01,2013-01-27 22:55:00,
2013-01-27 16:56:00,48.0,19.6,29.35,SSE,162,3.6,4.5,32,0.00,,---,0.00,VWS V14.01,2013-01-27 22:56:00,
2013-01-27 16:57:00,48.0,19.6,29.35,SSE,167,4.9,4.9,32,0.00,,---,0.00,VWS V14.01,2013-01-27 22:57:00,
2013-01-27 17:00:00,47.8,19.4,29.35,SE,144,2.7,2.7,32,0.00,,---,0.00,VWS V14.01,2013-01-27 23:00:00,
2013-01-27 17:01:00,47.8,19.4,29.35,SE,144,2.2,2.7,32,0.00,,---,0.00,VWS V14.01,2013-01-27 23:01:00,
2013-01-27 17:02:00,47.8,19.4,29.35,SE,144,2.2,3.6,32,0.00,,---,0.00,VWS V14.01,2013-01-27 23:02:00,
2013-01-27 17:05:00,47.8,19.4,29.35,SSE,152,2.7,2.7,32,0.00,,---,0.00,VWS V14.01,2013-01-27 23:05:00,
2013-01-27 17:06:00,47.8,19.4,29.35,South,179,4.9,4.9,32,0.00,,---,0.00,VWS V14.01,2013-01-27 23:06:00,
2013-01-27 17:07:00,47.8,19.4,29.35,SSE,163,3.6,3.6,32,0.00,,---,0.00,VWS V14.01,2013-01-27 23:07:00,
2013-01-27 17:10:00,47.8,19.4,29.35,SSE,157,3.1,3.1,32,0.00,,---,0.00,VWS V14.01,2013-01-27 23:10:00,
2013-01-27 17:11:00,47.8,19.4,29.35,SE,139,3.6,4.9,32,0.00,,---,0.00,VWS V14.01,2013-01-27 23:11:00,
2013-01-27 17:12:00,47.8,19.4,29.35,SSE,160,5.4,5.4,32,0.00,,---,0.00,VWS V14.01,2013-01-27 23:12:00,
2013-01-27 17:15:00,47.7,19.3,29.35,South,181,4.0,5.8,32,0.00,,---,0.00,VWS V14.01,2013-01-27 23:15:00,
2013-01-27 17:16:00,47.7,19.3,29.35,SSE,160,4.0,5.8,32,0.00,,---,0.00,VWS V14.01,2013-01-27 23:16:00,
2013-01-27 17:17:00,47.7,19.3,29.35,SE,140,3.6,3.6,32,0.00,,---,0.00,VWS V14.01,2013-01-27 23:17:00,
2013-01-27 17:20:00,47.7,19.3,29.35,South,175,4.5,4.9,32,0.00,,---,0.00,VWS V14.01,2013-01-27 23:20:00,
2013-01-27 17:21:00,47.7,19.3,29.35,SE,142,3.1,3.6,32,0.00,,---,0.00,VWS V14.01,2013-01-27 23:21:00,
2013-01-27 17:22:00,47.7,19.3,29.35,South,177,3.6,3.6,32,0.00,,---,0.00,VWS V14.01,2013-01-27 23:22:00,
2013-01-27 17:25:00,47.7,19.3,29.35,SSE,155,2.7,4.0,32,0.00,,---,0.00,VWS V14.01,2013-01-27 23:25:00,
2013-01-27 17:26:00,47.7,19.3,29.35,SE,125,3.1,3.1,32,0.00,,---,0.00,VWS V14.01,2013-01-27 23:26:00,
2013-01-27 17:27:00,47.7,19.3,29.35,SSE,167,2.7,2.7,32,0.00,,---,0.00,VWS V14.01,2013-01-27 23:27:00,
2013-01-27 17:31:00,47.5,19.1,29.35,South,172,3.6,4.0,32,0.00,,---,0.00,VWS V14.01,2013-01-27 23:31:00,
2013-01-27 17:32:00,47.7,18.5,29.35,SE,131,3.6,4.0,31,0.00,,---,0.00,VWS V14.01,2013-01-27 23:32:00,
2013-01-27 17:36:00,47.7,18.5,29.35,SSE,151,5.4,5.8,31,0.00,,---,0.00,VWS V14.01,2013-01-27 23:36:00,
2013-01-27 17:37:00,47.7,18.5,29.35,SSE,156,6.3,6.3,31,0.00,,---,0.00,VWS V14.01,2013-01-27 23:37:00,
2013-01-27 17:41:00,47.7,18.5,29.35,SSE,157,5.4,7.6,31,0.00,,---,0.00,VWS V14.01,2013-01-27 23:41:00,
2013-01-27 17:42:00,47.7,18.5,29.35,SE,134,4.0,5.4,31,0.00,,---,0.00,VWS V14.01,2013-01-27 23:42:00,
2013-01-27 17:46:00,47.7,18.5,29.35,SSE,168,5.8,5.8,31,0.00,,---,0.00,VWS V14.01,2013-01-27 23:46:00,
2013-01-27 17:47:00,47.5,18.4,29.35,SE,142,6.3,6.3,31,0.00,,---,0.00,VWS V14.01,2013-01-27 23:47:00,
2013-01-27 17:48:00,47.5,18.4,29.35,SSE,168,5.4,8.7,31,0.00,,---,0.00,VWS V14.01,2013-01-27 23:48:00,
2013-01-27 17:51:00,47.5,17.6,29.35,SSE,151,5.8,11.0,30,0.00,,---,0.00,VWS V14.01,2013-01-27 23:51:00,
2013-01-27 17:52:00,47.7,17.8,29.35,SE,145,5.8,6.7,30,0.00,,---,0.00,VWS V14.01,2013-01-27 23:52:00,
2013-01-27 17:53:00,47.7,17.8,29.35,SSE,158,6.7,6.7,30,0.00,,---,0.00,VWS V14.01,2013-01-27 23:53:00,
2013-01-27 17:56:00,47.5,18.4,29.35,SSE,151,4.9,4.9,31,0.00,,---,0.00,VWS V14.01,2013-01-27 23:56:00,
2013-01-27 17:57:00,47.5,18.4,29.35,SSE,160,5.8,5.8,31,0.00,,---,0.00,VWS V14.01,2013-01-27 23:57:00,
2013-01-27 17:58:00,47.5,18.4,29.35,South,176,6.3,6.3,31,0.00,,---,0.00,VWS V14.01,2013-01-27 23:58:00,
2013-01-27 18:01:00,47.5,18.4,29.35,South,170,5.4,5.8,31,0.00,,---,0.00,VWS V14.01,2013-01-28 00:01:00,
2013-01-27 18:02:00,47.5,18.4,29.35,SSE,150,5.4,5.4,31,0.00,,---,0.00,VWS V14.01,2013-01-28 00:02:00,
2013-01-27 18:03:00,47.5,18.4,29.35,SSE,166,6.3,6.3,31,0.00,,---,0.00,VWS V14.01,2013-01-28 00:03:00,
2013-01-27 18:06:00,47.5,17.6,29.35,SSE,168,5.4,6.3,30,0.00,,---,0.00,VWS V14.01,2013-01-28 00:06:00,
2013-01-27 18:07:00,47.5,17.6,29.35,SE,146,6.3,6.3,30,0.00,,---,0.00,VWS V14.01,2013-01-28 00:07:00,
2013-01-27 18:08:00,47.5,18.4,29.35,South,173,3.1,4.9,31,0.00,,---,0.00,VWS V14.01,2013-01-28 00:08:00,
2013-01-27 18:11:00,47.5,18.4,29.35,SSE,159,5.4,5.8,31,0.00,,---,0.00,VWS V14.01,2013-01-28 00:11:00,
2013-01-27 18:12:00,47.5,18.4,29.35,South,172,5.8,5.8,31,0.00,,---,0.00,VWS V14.01,2013-01-28 00:12:00,
2013-01-27 18:13:00,47.5,18.4,29.35,SSE,151,6.3,6.3,31,0.00,,---,0.00,VWS V14.01,2013-01-28 00:13:00,
2013-01-27 18:16:00,47.3,17.5,29.35,SE,140,4.0,6.3,30,0.00,,---,0.00,VWS V14.01,2013-01-28 00:16:00,
2013-01-27 18:17:00,47.5,18.4,29.35,SSE,167,5.8,5.8,31,0.00,,---,0.00,VWS V14.01,2013-01-28 00:17:00,
2013-01-27 18:18:00,47.5,18.4,29.35,SSE,155,4.9,8.3,31,0.00,,---,0.00,VWS V14.01,2013-01-28 00:18:00,
2013-01-27 18:21:00,47.5,17.6,29.35,SSW,200,4.0,5.8,30,0.00,,---,0.00,VWS V14.01,2013-01-28 00:21:00,
2013-01-27 18:22:00,47.5,17.6,29.35,SE,138,4.9,10.1,30,0.00,,---,0.00,VWS V14.01,2013-01-28 00:22:00,
2013-01-27 18:23:00,47.5,17.6,29.35,South,181,9.2,9.2,30,0.00,,---,0.00,VWS V14.01,2013-01-28 00:23:00,
2013-01-27 18:26:00,47.5,17.6,29.35,SE,146,3.6,6.7,30,0.00,,---,0.00,VWS V14.01,2013-01-28 00:26:00,
2013-01-27 18:27:00,47.5,18.4,29.35,South,183,6.3,7.2,31,0.00,,---,0.00,VWS V14.01,2013-01-28 00:27:00,
2013-01-27 18:28:00,47.3,18.2,29.35,South,171,5.4,5.4,31,0.00,,---,0.00,VWS V14.01,2013-01-28 00:28:00,
2013-01-27 18:31:00,47.3,17.5,29.35,SSE,154,8.3,11.0,30,0.00,,---,0.00,VWS V14.01,2013-01-28 00:31:00,
2013-01-27 18:33:00,47.3,17.5,29.35,SE,126,4.0,6.3,30,0.00,,---,0.00,VWS V14.01,2013-01-28 00:33:00,
2013-01-27 18:36:00,47.3,17.5,29.35,SSE,162,8.3,8.3,30,0.00,,---,0.00,VWS V14.01,2013-01-28 00:36:00,
2013-01-27 18:38:00,47.3,18.2,29.35,SSE,153,3.6,4.9,31,0.00,,---,0.00,VWS V14.01,2013-01-28 00:38:00,
2013-01-27 18:39:00,47.3,18.2,29.35,SSW,193,5.4,8.3,31,0.00,,---,0.00,VWS V14.01,2013-01-28 00:39:00,
2013-01-27 18:42:00,47.3,17.5,29.35,South,173,5.4,8.7,30,0.00,,---,0.00,VWS V14.01,2013-01-28 00:42:00,
2013-01-27 18:43:00,47.3,17.5,29.35,South,181,8.1,8.7,30,0.00,,---,0.00,VWS V14.01,2013-01-28 00:43:00,
2013-01-27 18:44:00,47.3,18.2,29.35,South,172,5.8,8.1,31,0.00,,---,0.00,VWS V14.01,2013-01-28 00:44:00,
2013-01-27 18:47:00,47.3,17.5,29.35,SSE,151,8.7,8.7,30,0.00,,---,0.00,VWS V14.01,2013-01-28 00:47:00,
2013-01-27 18:48:00,47.3,18.2,29.35,SSE,152,6.3,6.3,31,0.00,,---,0.00,VWS V14.01,2013-01-28 00:48:00,
2013-01-27 18:49:00,47.3,18.2,29.35,SE,139,6.3,6.3,31,0.00,,---,0.00,VWS V14.01,2013-01-28 00:49:00,
2013-01-27 18:52:00,47.3,18.2,29.35,SSE,168,5.4,6.3,31,0.00,,---,0.00,VWS V14.01,2013-01-28 00:52:00,
2013-01-27 18:53:00,47.3,18.2,29.35,South,174,5.8,8.3,31,0.00,,---,0.00,VWS V14.01,2013-01-28 00:53:00,
2013-01-27 18:54:00,47.3,18.2,29.35,South,171,5.4,5.4,31,0.00,,---,0.00,VWS V14.01,2013-01-28 00:54:00,
2013-01-27 18:57:00,47.1,18.1,29.35,South,179,5.4,7.6,31,0.00,,---,0.00,VWS V14.01,2013-01-28 00:57:00,
2013-01-27 18:58:00,47.1,18.1,29.35,SSE,163,8.1,8.1,31,0.00,,---,0.00,VWS V14.01,2013-01-28 00:58:00,
2013-01-27 18:59:00,47.1,18.1,29.35,SSW,194,6.3,6.3,31,0.00,,---,0.00,VWS V14.01,2013-01-28 00:59:00,
2013-01-27 19:02:00,47.1,18.1,29.35,South,189,6.3,10.5,31,0.00,,---,0.00,VWS V14.01,2013-01-28 01:02:00,
2013-01-27 19:03:00,47.1,18.1,29.35,SSE,165,3.6,6.3,31,0.00,,---,0.00,VWS V14.01,2013-01-28 01:03:00,
2013-01-27 19:04:00,47.1,18.1,29.35,South,178,6.3,6.3,31,0.00,,---,0.00,VWS V14.01,2013-01-28 01:04:00,
2013-01-27 19:07:00,47.1,18.1,29.35,South,176,5.8,5.8,31,0.00,,---,0.00,VWS V14.01,2013-01-28 01:07:00,
2013-01-27 19:08:00,47.1,18.1,29.35,SSE,150,10.1,10.1,31,0.00,,---,0.00,VWS V14.01,2013-01-28 01:08:00,
2013-01-27 19:09:00,47.1,18.1,29.35,South,189,8.3,8.3,31,0.00,,---,0.00,VWS V14.01,2013-01-28 01:09:00,
2013-01-27 19:12:00,47.1,18.1,29.35,SSE,153,8.1,8.1,31,0.00,,---,0.00,VWS V14.01,2013-01-28 01:12:00,
2013-01-27 19:13:00,47.1,18.1,29.35,South,169,5.4,10.5,31,0.00,,---,0.00,VWS V14.01,2013-01-28 01:13:00,
2013-01-27 19:14:00,46.9,17.9,29.35,SSE,167,8.7,8.7,31,0.00,,---,0.00,VWS V14.01,2013-01-28 01:14:00,
2013-01-27 19:17:00,46.9,17.9,29.35,South,170,8.3,8.3,31,0.00,,---,0.00,VWS V14.01,2013-01-28 01:17:00,
2013-01-27 19:18:00,46.9,17.9,29.35,South,172,4.5,4.5,31,0.00,,---,0.00,VWS V14.01,2013-01-28 01:18:00,
2013-01-27 19:19:00,46.9,17.9,29.35,SE,129,8.3,8.3,31,0.00,,---,0.00,VWS V14.01,2013-01-28 01:19:00,
2013-01-27 19:22:00,46.9,17.9,29.35,SSE,166,12.3,12.3,31,0.00,,---,0.00,VWS V14.01,2013-01-28 01:22:00,
2013-01-27 19:23:00,46.9,17.9,29.35,SSE,152,9.6,12.3,31,0.00,,---,0.00,VWS V14.01,2013-01-28 01:23:00,
2013-01-27 19:24:00,46.9,17.9,29.35,SE,142,5.4,5.4,31,0.00,,---,0.00,VWS V14.01,2013-01-28 01:24:00,
2013-01-27 19:25:00,46.9,17.9,29.35,SSE,157,5.8,8.7,31,0.00,,---,0.00,VWS V14.01,2013-01-28 01:25:00,
2013-01-27 19:27:00,46.8,17.7,29.35,SE,139,5.4,6.3,31,0.00,,---,0.00,VWS V14.01,2013-01-28 01:27:00,
2013-01-27 19:28:00,46.8,17.7,29.35,South,170,5.8,5.8,31,0.00,,---,0.00,VWS V14.01,2013-01-28 01:28:00,
2013-01-27 19:29:00,46.8,17.7,29.35,SSE,153,5.8,10.5,31,0.00,,---,0.00,VWS V14.01,2013-01-28 01:29:00,
2013-01-27 19:30:00,46.8,17.7,29.35,SSE,156,4.0,10.5,31,0.00,,---,0.00,VWS V14.01,2013-01-28 01:30:00,
2013-01-27 19:32:00,46.8,17.7,29.35,South,171,5.4,6.3,31,0.00,,---,0.00,VWS V14.01,2013-01-28 01:32:00,
2013-01-27 19:33:00,46.8,17.7,29.35,SSE,155,5.4,5.4,31,0.00,,---,0.00,VWS V14.01,2013-01-28 01:33:00,
2013-01-27 19:34:00,46.8,17.7,29.35,SE,146,9.2,9.2,31,0.00,,---,0.00,VWS V14.01,2013-01-28 01:34:00,
2013-01-27 19:35:00,46.8,17.7,29.35,West,260,5.8,5.8,31,0.00,,---,0.00,VWS V14.01,2013-01-28 01:35:00,
2013-01-27 19:37:00,46.8,17.7,29.35,SSE,149,5.8,5.8,31,0.00,,---,0.00,VWS V14.01,2013-01-28 01:37:00,
2013-01-27 19:38:00,46.6,17.6,29.35,SSE,157,3.1,8.7,31,0.00,,---,0.00,VWS V14.01,2013-01-28 01:38:00,
2013-01-27 19:39:00,46.6,18.3,29.35,SSE,147,8.1,8.1,32,0.00,,---,0.00,VWS V14.01,2013-01-28 01:39:00,
2013-01-27 19:40:00,46.6,17.6,29.35,SE,138,4.0,5.8,31,0.00,,---,0.00,VWS V14.01,2013-01-28 01:40:00,
2013-01-27 19:42:00,46.6,18.3,29.35,SE,136,6.3,6.3,32,0.00,,---,0.00,VWS V14.01,2013-01-28 01:42:00,
2013-01-27 19:43:00,46.6,18.3,29.35,SSE,159,5.4,6.3,32,0.00,,---,0.00,VWS V14.01,2013-01-28 01:43:00,
2013-01-27 19:44:00,46.6,17.6,29.35,SSE,154,5.4,8.1,31,0.00,,---,0.00,VWS V14.01,2013-01-28 01:44:00,
2013-01-27 19:45:00,46.6,17.6,29.35,SE,142,6.3,7.2,31,0.00,,---,0.00,VWS V14.01,2013-01-28 01:45:00,
2013-01-27 19:47:00,46.6,17.6,29.35,South,182,5.4,8.3,31,0.00,,---,0.00,VWS V14.01,2013-01-28 01:47:00,
2013-01-27 19:48:00,46.6,17.6,29.35,SSE,153,6.3,6.3,31,0.00,,---,0.00,VWS V14.01,2013-01-28 01:48:00,
2013-01-27 19:49:00,46.6,17.6,29.35,SE,136,6.3,6.3,31,0.00,,---,0.00,VWS V14.01,2013-01-28 01:49:00,
2013-01-27 19:50:00,46.6,17.6,29.35,SE,144,5.4,5.8,31,0.00,,---,0.00,VWS V14.01,2013-01-28 01:50:00,
2013-01-27 19:52:00,46.6,18.3,29.35,SE,145,3.6,4.0,32,0.00,,---,0.00,VWS V14.01,2013-01-28 01:52:00,
2013-01-27 19:53:00,46.6,17.6,29.35,SSE,156,6.3,8.3,31,0.00,,---,0.00,VWS V14.01,2013-01-28 01:53:00,
2013-01-27 19:54:00,46.6,17.6,29.35,SSE,168,4.0,6.3,31,0.00,,---,0.00,VWS V14.01,2013-01-28 01:54:00,
2013-01-27 19:55:00,46.6,18.3,29.35,South,171,4.0,5.4,32,0.00,,---,0.00,VWS V14.01,2013-01-28 01:55:00,
2013-01-27 19:58:00,46.6,18.3,29.35,SSE,164,5.4,5.4,32,0.00,,---,0.00,VWS V14.01,2013-01-28 01:58:00,
2013-01-27 19:59:00,46.6,17.6,29.35,SSE,158,6.3,8.1,31,0.00,,---,0.00,VWS V14.01,2013-01-28 01:59:00,
2013-01-27 20:01:00,46.6,17.6,29.35,SSE,166,7.6,8.7,31,0.00,,---,0.00,VWS V14.01,2013-01-28 02:01:00,
2013-01-27 20:03:00,46.6,18.3,29.35,South,170,5.8,7.2,32,0.00,,---,0.00,VWS V14.01,2013-01-28 02:03:00,
2013-01-27 20:05:00,46.6,18.3,29.35,SSE,151,4.9,8.7,32,0.00,,---,0.00,VWS V14.01,2013-01-28 02:05:00,
2013-01-27 20:06:00,46.6,18.3,29.35,SSE,151,4.0,6.3,32,0.00,,---,0.00,VWS V14.01,2013-01-28 02:06:00,
2013-01-27 20:08:00,46.6,18.3,29.35,SSE,158,8.3,8.3,32,0.00,,---,0.00,VWS V14.01,2013-01-28 02:08:00,
2013-01-27 20:09:00,46.6,18.3,29.35,SSE,153,6.3,8.3,32,0.00,,---,0.00,VWS V14.01,2013-01-28 02:09:00,
2013-01-27 20:10:00,46.6,18.3,29.35,South,172,10.5,10.5,32,0.00,,---,0.00,VWS V14.01,2013-01-28 02:10:00,
2013-01-27 20:11:00,46.6,17.6,29.35,SSE,167,5.4,10.5,31,0.00,,---,0.00,VWS V14.01,2013-01-28 02:11:00,
2013-01-27 20:13:00,46.6,17.6,29.35,South,175,5.8,8.1,31,0.00,,---,0.00,VWS V14.01,2013-01-28 02:13:00,
2013-01-27 20:14:00,46.8,18.5,29.35,SSE,163,5.4,8.1,32,0.00,,---,0.00,VWS V14.01,2013-01-28 02:14:00,
2013-01-27 20:15:00,46.6,18.3,29.35,SSE,162,5.4,5.8,32,0.00,,---,0.00,VWS V14.01,2013-01-28 02:15:00,
2013-01-27 20:16:00,46.6,18.3,29.35,South,175,5.8,8.1,32,0.00,,---,0.00,VWS V14.01,2013-01-28 02:16:00,
2013-01-27 20:18:00,46.8,17.7,29.35,SE,137,5.4,8.7,31,0.00,,---,0.00,VWS V14.01,2013-01-28 02:18:00,
2013-01-27 20:19:00,46.8,17.7,29.35,SSE,149,6.3,6.3,31,0.00,,---,0.00,VWS V14.01,2013-01-28 02:19:00,
2013-01-27 20:20:00,46.8,17.7,29.35,SSE,166,6.3,6.3,31,0.00,,---,0.00,VWS V14.01,2013-01-28 02:20:00,
2013-01-27 20:21:00,46.8,17.7,29.35,SSE,159,5.8,8.7,31,0.00,,---,0.00,VWS V14.01,2013-01-28 02:21:00,
2013-01-27 20:23:00,46.8,18.5,29.35,South,169,7.2,8.1,32,0.00,,---,0.00,VWS V14.01,2013-01-28 02:23:00,
2013-01-27 20:24:00,46.8,18.5,29.35,SSE,166,8.3,8.3,32,0.00,,---,0.00,VWS V14.01,2013-01-28 02:24:00,
2013-01-27 20:25:00,46.8,17.7,29.35,SSE,162,8.7,9.2,31,0.00,,---,0.00,VWS V14.01,2013-01-28 02:25:00,
2013-01-27 20:26:00,46.8,17.7,29.35,South,171,8.3,9.2,31,0.00,,---,0.00,VWS V14.01,2013-01-28 02:26:00,
2013-01-27 20:28:00,46.8,18.5,29.35,SSE,167,5.4,7.2,32,0.00,,---,0.00,VWS V14.01,2013-01-28 02:28:00,
2013-01-27 20:29:00,46.8,18.5,29.35,SE,134,8.7,12.3,32,0.00,,---,0.00,VWS V14.01,2013-01-28 02:29:00,
2013-01-27 20:30:00,46.8,17.7,29.35,SSE,154,8.7,8.7,31,0.00,,---,0.00,VWS V14.01,2013-01-28 02:30:00,
2013-01-27 20:31:00,46.8,17.7,29.35,SSE,148,8.3,8.3,31,0.00,,---,0.00,VWS V14.01,2013-01-28 02:31:00,
2013-01-27 20:33:00,46.8,18.5,29.35,SSE,156,4.0,4.0,32,0.00,,---,0.00,VWS V14.01,2013-01-28 02:33:00,
2013-01-27 20:34:00,46.6,18.3,29.35,SSE,150,5.4,5.4,32,0.00,,---,0.00,VWS V14.01,2013-01-28 02:34:00,
2013-01-27 20:35:00,46.6,18.3,29.35,SSE,158,4.5,4.5,32,0.00,,---,0.00,VWS V14.01,2013-01-28 02:35:00,
2013-01-27 20:36:00,46.6,18.3,29.35,SSE,148,7.6,7.6,32,0.00,,---,0.00,VWS V14.01,2013-01-28 02:36:00,
2013-01-27 20:38:00,46.6,18.3,29.35,SE,137,5.4,6.3,32,0.00,,---,0.00,VWS V14.01,2013-01-28 02:38:00,
2013-01-27 20:39:00,46.4,18.2,29.35,SE,135,5.8,6.3,32,0.00,,---,0.00,VWS V14.01,2013-01-28 02:39:00,
2013-01-27 20:40:00,46.4,18.2,29.35,SSE,168,5.8,6.3,32,0.00,,---,0.00,VWS V14.01,2013-01-28 02:40:00,
2013-01-27 20:41:00,46.4,18.2,29.35,SSE,159,5.8,5.8,32,0.00,,---,0.00,VWS V14.01,2013-01-28 02:41:00,
2013-01-27 20:43:00,46.4,18.2,29.35,SSE,160,6.3,6.3,32,0.00,,---,0.00,VWS V14.01,2013-01-28 02:43:00,
2013-01-27 20:44:00,46.4,18.2,29.35,SSE,160,6.3,6.3,32,0.00,,---,0.00,VWS V14.01,2013-01-28 02:44:00,
2013-01-27 20:45:00,46.4,18.2,29.35,SSE,160,6.3,6.3,32,0.00,,---,0.00,VWS V14.01,2013-01-28 02:45:00,
2013-01-27 20:46:00,46.4,18.2,29.35,SSE,160,6.3,6.3,32,0.00,,---,0.00,VWS V14.01,2013-01-28 02:46:00,
2013-01-27 20:48:00,46.4,18.2,29.35,SSE,147,8.1,8.1,32,0.00,,---,0.00,VWS V14.01,2013-01-28 02:48:00,
2013-01-27 20:49:00,46.4,18.2,29.35,SSE,147,8.1,8.1,32,0.00,,---,0.00,VWS V14.01,2013-01-28 02:49:00,
2013-01-27 20:51:00,46.4,18.2,29.35,SSE,162,5.4,5.4,32,0.00,,---,0.00,VWS V14.01,2013-01-28 02:51:00,
2013-01-27 20:52:00,46.4,18.2,29.35,SSE,162,5.4,5.4,32,0.00,,---,0.00,VWS V14.01,2013-01-28 02:52:00,
2013-01-27 20:53:00,46.4,18.2,29.35,SSE,154,4.0,5.4,32,0.00,,---,0.00,VWS V14.01,2013-01-28 02:53:00,
2013-01-27 20:54:00,46.4,18.2,29.35,SSE,154,4.0,5.4,32,0.00,,---,0.00,VWS V14.01,2013-01-28 02:54:00,
2013-01-27 20:56:00,46.4,18.2,29.35,SSE,156,7.6,7.6,32,0.00,,---,0.00,VWS V14.01,2013-01-28 02:56:00,
2013-01-27 20:57:00,46.4,18.2,29.35,SSE,156,7.6,7.6,32,0.00,,---,0.00,VWS V14.01,2013-01-28 02:57:00,
2013-01-27 20:58:00,46.4,18.2,29.35,SSE,151,5.8,7.6,32,0.00,,---,0.00,VWS V14.01,2013-01-28 02:58:00,
2013-01-27 20:59:00,46.4,18.2,29.35,SSE,151,5.8,7.6,32,0.00,,---,0.00,VWS V14.01,2013-01-28 02:59:00,
2013-01-27 21:01:00,46.4,18.2,29.35,SSE,151,5.8,5.8,32,0.00,,---,0.00,VWS V14.01,2013-01-28 03:01:00,
2013-01-27 21:02:00,46.4,18.2,29.35,SSE,147,3.6,3.6,32,0.00,,---,0.00,VWS V14.01,2013-01-28 03:02:00,
2013-01-27 21:04:00,46.4,18.2,29.35,SSE,147,3.6,3.6,32,0.00,,---,0.00,VWS V14.01,2013-01-28 03:04:00,
2013-01-27 21:06:00,46.0,17.9,29.35,SSE,148,5.4,5.4,32,0.00,,---,0.00,VWS V14.01,2013-01-28 03:06:00,
2013-01-27 21:07:00,46.0,17.9,29.35,SSE,158,8.1,8.1,32,0.00,,---,0.00,VWS V14.01,2013-01-28 03:07:00,
2013-01-27 21:09:00,46.0,17.9,29.35,SSE,161,5.8,5.8,32,0.00,,---,0.00,VWS V14.01,2013-01-28 03:09:00,
2013-01-27 21:11:00,46.0,17.9,29.32,SSE,161,5.8,5.8,32,0.00,,---,0.00,VWS V14.01,2013-01-28 03:11:00,
2013-01-27 21:12:00,45.9,18.4,29.32,SE,128,5.4,5.4,33,0.00,,---,0.00,VWS V14.01,2013-01-28 03:12:00,
2013-01-27 21:14:00,45.9,18.4,29.32,SE,128,5.4,5.4,33,0.00,,---,0.00,VWS V14.01,2013-01-28 03:14:00,
2013-01-27 21:16:00,45.9,17.7,29.32,SSE,163,5.8,5.8,32,0.00,,---,0.00,VWS V14.01,2013-01-28 03:16:00,
2013-01-27 21:18:00,45.9,17.7,29.32,South,187,5.4,5.8,32,0.00,,---,0.00,VWS V14.01,2013-01-28 03:18:00,
2013-01-27 21:19:00,45.9,17.7,29.32,South,187,5.4,5.4,32,0.00,,---,0.00,VWS V14.01,2013-01-28 03:19:00,
2013-01-27 21:21:00,45.9,17.7,29.32,South,183,5.4,5.4,32,0.00,,---,0.00,VWS V14.01,2013-01-28 03:21:00,
2013-01-27 21:23:00,45.9,17.7,29.35,SSE,160,6.3,6.3,32,0.00,,---,0.00,VWS V14.01,2013-01-28 03:23:00,
2013-01-27 21:24:00,45.9,17.7,29.35,South,170,5.8,8.1,32,0.00,,---,0.00,VWS V14.01,2013-01-28 03:24:00,
2013-01-27 21:26:00,45.9,17.7,29.35,SSE,163,3.1,5.8,32,0.00,,---,0.00,VWS V14.01,2013-01-28 03:26:00,
2013-01-27 21:28:00,45.9,17.7,29.35,SSE,163,3.1,3.1,32,0.00,,---,0.00,VWS V14.01,2013-01-28 03:28:00,
2013-01-27 21:29:00,45.9,17.7,29.35,SSE,162,0.0,3.1,32,0.00,,---,0.00,VWS V14.01,2013-01-28 03:29:00,
2013-01-27 21:31:00,45.9,17.7,29.35,SSE,162,0.0,0.0,32,0.00,,---,0.00,VWS V14.01,2013-01-28 03:31:00,
2013-01-27 21:33:00,45.7,17.5,29.35,ESE,121,4.0,4.0,32,0.00,,---,0.00,VWS V14.01,2013-01-28 03:33:00,
2013-01-27 21:34:00,45.7,17.5,29.35,SSE,168,4.9,4.9,32,0.00,,---,0.00,VWS V14.01,2013-01-28 03:34:00,
2013-01-27 21:36:00,45.7,17.5,29.35,SSE,164,2.2,4.9,32,0.00,,---,0.00,VWS V14.01,2013-01-28 03:36:00,
2013-01-27 21:38:00,45.7,18.2,29.35,South,181,3.1,3.1,33,0.00,,---,0.00,VWS V14.01,2013-01-28 03:38:00,
2013-01-27 21:39:00,45.7,18.2,29.35,South,181,3.1,3.1,33,0.00,,---,0.00,VWS V14.01,2013-01-28 03:39:00,
2013-01-27 21:41:00,45.7,18.2,29.35,South,181,3.1,3.1,33,0.00,,---,0.00,VWS V14.01,2013-01-28 03:41:00,
2013-01-27 21:44:00,45.7,18.2,29.35,SE,146,3.1,3.1,33,0.00,,---,0.00,VWS V14.01,2013-01-28 03:44:00,
2013-01-27 21:46:00,45.7,18.2,29.35,SSE,154,5.8,5.8,33,0.00,,---,0.00,VWS V14.01,2013-01-28 03:46:00,
2013-01-27 21:49:00,45.7,18.2,29.35,SSE,154,5.8,5.8,33,0.00,,---,0.00,VWS V14.01,2013-01-28 03:49:00,
2013-01-27 21:51:00,45.5,18.1,29.35,SE,136,4.9,4.9,33,0.00,,---,0.00,VWS V14.01,2013-01-28 03:51:00,
2013-01-27 21:54:00,45.5,18.1,29.35,SSE,152,2.7,2.7,33,0.00,,---,0.00,VWS V14.01,2013-01-28 03:54:00,
2013-01-27 21:55:00,45.5,18.1,29.35,SSE,152,2.7,2.7,33,0.00,,---,0.00,VWS V14.01,2013-01-28 03:55:00,
2013-01-27 21:57:00,45.3,17.9,29.35,SE,138,2.7,2.7,33,0.00,,---,0.00,VWS V14.01,2013-01-28 03:57:00,
2013-01-27 21:59:00,45.1,17.8,29.35,SE,138,2.7,2.7,33,0.00,,---,0.00,VWS V14.01,2013-01-28 03:59:00,
2013-01-27 22:00:00,45.1,17.8,29.35,SSE,154,3.1,3.1,33,0.00,,---,0.00,VWS V14.01,2013-01-28 04:00:00,
2013-01-27 22:02:00,45.1,17.8,29.35,SSE,154,3.1,3.1,33,0.00,,---,0.00,VWS V14.01,2013-01-28 04:02:00,
2013-01-27 22:04:00,45.0,18.3,29.35,SSW,196,3.1,3.1,34,0.00,,---,0.00,VWS V14.01,2013-01-28 04:04:00,
2013-01-27 22:05:00,45.0,18.3,29.35,SSW,196,3.1,3.1,34,0.00,,---,0.00,VWS V14.01,2013-01-28 04:05:00,
2013-01-27 22:07:00,45.0,17.6,29.35,SSW,196,3.1,3.1,33,0.00,,---,0.00,VWS V14.01,2013-01-28 04:07:00,
2013-01-27 22:09:00,45.0,17.6,29.35,SSW,196,3.1,3.1,33,0.00,,---,0.00,VWS V14.01,2013-01-28 04:09:00,
2013-01-27 22:10:00,45.0,17.6,29.35,South,170,3.1,3.1,33,0.00,,---,0.00,VWS V14.01,2013-01-28 04:10:00,
2013-01-27 22:11:00,45.0,17.6,29.35,South,170,3.1,3.1,33,0.00,,---,0.00,VWS V14.01,2013-01-28 04:11:00,
2013-01-27 22:12:00,45.1,17.8,29.35,South,179,2.7,3.1,33,0.00,,---,0.00,VWS V14.01,2013-01-28 04:12:00,
2013-01-27 22:14:00,45.1,17.8,29.35,South,186,3.6,3.6,33,0.00,,---,0.00,VWS V14.01,2013-01-28 04:14:00,
2013-01-27 22:15:00,45.1,17.8,29.35,South,186,3.6,3.6,33,0.00,,---,0.00,VWS V14.01,2013-01-28 04:15:00,
2013-01-27 22:16:00,45.1,17.8,29.35,South,186,3.6,3.6,33,0.00,,---,0.00,VWS V14.01,2013-01-28 04:16:00,
2013-01-27 22:17:00,45.1,17.8,29.35,South,186,3.6,3.6,33,0.00,,---,0.00,VWS V14.01,2013-01-28 04:17:00,
2013-01-27 22:19:00,45.1,17.8,29.35,SE,145,5.4,5.4,33,0.00,,---,0.00,VWS V14.01,2013-01-28 04:19:00,
2013-01-27 22:20:00,45.1,17.8,29.35,SE,145,5.4,5.4,33,0.00,,---,0.00,VWS V14.01,2013-01-28 04:20:00,
2013-01-27 22:21:00,45.1,17.8,29.35,SE,145,5.4,5.4,33,0.00,,---,0.00,VWS V14.01,2013-01-28 04:21:00,
2013-01-27 22:22:00,45.1,17.8,29.35,South,173,4.9,4.9,33,0.00,,---,0.00,VWS V14.01,2013-01-28 04:22:00,
2013-01-27 22:24:00,45.1,17.8,29.35,South,173,4.9,4.9,33,0.00,,---,0.00,VWS V14.01,2013-01-28 04:24:00,
2013-01-27 22:25:00,45.1,17.8,29.35,SSE,147,4.9,4.9,33,0.00,,---,0.00,VWS V14.01,2013-01-28 04:25:00,
2013-01-27 22:26:00,45.1,17.8,29.35,SSE,147,4.9,4.9,33,0.00,,---,0.00,VWS V14.01,2013-01-28 04:26:00,
2013-01-27 22:27:00,45.1,17.8,29.35,SSE,147,4.9,4.9,33,0.00,,---,0.00,VWS V14.01,2013-01-28 04:27:00,
2013-01-27 22:29:00,45.0,17.6,29.35,SSE,154,5.8,8.7,33,0.00,,---,0.00,VWS V14.01,2013-01-28 04:29:00,
2013-01-27 22:30:00,45.0,17.6,29.35,SSE,154,5.8,5.8,33,0.00,,---,0.00,VWS V14.01,2013-01-28 04:30:00,
2013-01-27 22:31:00,45.0,17.6,29.35,South,173,5.8,5.8,33,0.00,,---,0.00,VWS V14.01,2013-01-28 04:31:00,
2013-01-27 22:32:00,45.0,17.6,29.35,South,173,5.8,5.8,33,0.00,,---,0.00,VWS V14.01,2013-01-28 04:32:00,
2013-01-27 22:35:00,45.0,17.6,29.35,SSE,154,6.3,6.3,33,0.00,,---,0.00,VWS V14.01,2013-01-28 04:35:00,
2013-01-27 22:36:00,45.0,17.6,29.35,South,172,5.8,5.8,33,0.00,,---,0.00,VWS V14.01,2013-01-28 04:36:00,
2013-01-27 22:37:00,45.0,17.6,29.35,South,172,5.8,5.8,33,0.00,,---,0.00,VWS V14.01,2013-01-28 04:37:00,
2013-01-27 22:40:00,45.0,17.6,29.35,SSE,151,7.6,7.6,33,0.00,,---,0.00,VWS V14.01,2013-01-28 04:40:00,
2013-01-27 22:41:00,45.0,17.6,29.35,SE,137,6.3,6.3,33,0.00,,---,0.00,VWS V14.01,2013-01-28 04:41:00,
2013-01-27 22:42:00,45.0,17.6,29.32,South,176,8.1,8.1,33,0.00,,---,0.00,VWS V14.01,2013-01-28 04:42:00,
2013-01-27 22:45:00,45.1,17.1,29.32,SE,145,5.4,5.4,32,0.00,,---,0.00,VWS V14.01,2013-01-28 04:45:00,
2013-01-27 22:46:00,45.1,17.1,29.32,SSE,163,5.4,5.4,32,0.00,,---,0.00,VWS V14.01,2013-01-28 04:46:00,
2013-01-27 22:47:00,45.1,17.8,29.32,SSE,163,5.4,5.4,33,0.00,,---,0.00,VWS V14.01,2013-01-28 04:47:00,
2013-01-27 22:50:00,45.1,17.8,29.32,SE,145,4.9,4.9,33,0.00,,---,0.00,VWS V14.01,2013-01-28 04:50:00,
2013-01-27 22:51:00,45.1,17.8,29.32,SE,145,4.9,4.9,33,0.00,,---,0.00,VWS V14.01,2013-01-28 04:51:00,
2013-01-27 22:52:00,45.1,17.1,29.32,SE,145,4.9,4.9,32,0.00,,---,0.00,VWS V14.01,2013-01-28 04:52:00,
2013-01-27 22:55:00,45.1,17.1,29.32,SSE,160,13.2,13.2,32,0.00,,---,0.00,VWS V14.01,2013-01-28 04:55:00,
2013-01-27 22:56:00,45.1,17.1,29.32,SSE,160,13.2,13.2,32,0.00,,---,0.00,VWS V14.01,2013-01-28 04:56:00,
2013-01-27 22:57:00,45.1,17.1,29.32,SSE,157,4.9,6.3,32,0.00,,---,0.00,VWS V14.01,2013-01-28 04:57:00,
2013-01-27 23:00:00,45.3,17.2,29.32,South,187,2.7,2.7,32,0.00,,---,0.00,VWS V14.01,2013-01-28 05:00:00,
2013-01-27 23:03:00,45.3,17.2,29.32,SSE,164,2.7,2.7,32,0.00,,---,0.00,VWS V14.01,2013-01-28 05:03:00,
2013-01-27 23:05:00,45.1,17.1,29.32,South,183,2.2,2.2,32,0.00,,---,0.00,VWS V14.01,2013-01-28 05:05:00,
2013-01-27 23:08:00,45.1,17.1,29.32,South,173,2.7,2.7,32,0.00,,---,0.00,VWS V14.01,2013-01-28 05:08:00,
2013-01-27 23:10:00,45.1,17.1,29.35,South,169,4.0,4.0,32,0.00,,---,0.00,VWS V14.01,2013-01-28 05:10:00,
2013-01-27 23:11:00,45.1,17.1,29.35,South,169,4.0,4.0,32,0.00,,---,0.00,VWS V14.01,2013-01-28 05:11:00,
2013-01-27 23:13:00,44.8,16.7,29.35,South,169,4.0,4.0,32,0.00,,---,0.00,VWS V14.01,2013-01-28 05:13:00,
2013-01-27 23:14:00,44.8,16.7,29.35,South,180,5.8,5.8,32,0.00,,---,0.00,VWS V14.01,2013-01-28 05:14:00,
2013-01-27 23:16:00,44.8,16.7,29.35,SE,146,3.6,5.8,32,0.00,,---,0.00,VWS V14.01,2013-01-28 05:16:00,
2013-01-27 23:18:00,44.8,16.7,29.35,SE,146,3.6,3.6,32,0.00,,---,0.00,VWS V14.01,2013-01-28 05:18:00,
2013-01-27 23:19:00,44.8,16.7,29.35,SE,146,3.6,3.6,32,0.00,,---,0.00,VWS V14.01,2013-01-28 05:19:00,
2013-01-27 23:21:00,44.8,16.7,29.35,SSW,210,4.0,4.0,32,0.00,,---,0.00,VWS V14.01,2013-01-28 05:21:00,
2013-01-27 23:23:00,44.8,16.7,29.35,South,176,3.6,3.6,32,0.00,,---,0.00,VWS V14.01,2013-01-28 05:23:00,
2013-01-27 23:24:00,44.8,16.7,29.35,NW,312,3.1,3.1,32,0.00,,---,0.00,VWS V14.01,2013-01-28 05:24:00,
2013-01-27 23:26:00,44.8,16.7,29.35,South,182,5.4,5.4,32,0.00,,---,0.00,VWS V14.01,2013-01-28 05:26:00,
2013-01-27 23:28:00,44.8,16.7,29.35,SSE,157,3.1,8.1,32,0.00,,---,0.00,VWS V14.01,2013-01-28 05:28:00,
2013-01-27 23:29:00,44.8,16.7,29.35,SSE,157,3.1,3.1,32,0.00,,---,0.00,VWS V14.01,2013-01-28 05:29:00,
2013-01-27 23:31:00,44.8,16.7,29.35,SSE,157,3.1,3.1,32,0.00,,---,0.00,VWS V14.01,2013-01-28 05:31:00,
2013-01-27 23:33:00,44.8,16.7,29.35,South,176,4.9,4.9,32,0.00,,---,0.00,VWS V14.01,2013-01-28 05:33:00,
2013-01-27 23:34:00,44.8,16.7,29.35,South,176,4.9,4.9,32,0.00,,---,0.00,VWS V14.01,2013-01-28 05:34:00,
2013-01-27 23:36:00,44.8,16.7,29.35,SSE,150,3.6,3.6,32,0.00,,---,0.00,VWS V14.01,2013-01-28 05:36:00,
2013-01-27 23:38:00,44.8,16.7,29.35,SSE,147,4.9,4.9,32,0.00,,---,0.00,VWS V14.01,2013-01-28 05:38:00,
2013-01-27 23:39:00,44.8,16.7,29.35,SSE,147,4.9,4.9,32,0.00,,---,0.00,VWS V14.01,2013-01-28 05:39:00,
2013-01-27 23:41:00,44.8,16.7,29.35,SSE,147,4.9,4.9,32,0.00,,---,0.00,VWS V14.01,2013-01-28 05:41:00,
2013-01-27 23:43:00,44.8,16.7,29.35,SSE,147,4.9,4.9,32,0.00,,---,0.00,VWS V14.01,2013-01-28 05:43:00,
2013-01-27 23:44:00,44.8,16.7,29.35,SSE,147,4.9,4.9,32,0.00,,---,0.00,VWS V14.01,2013-01-28 05:44:00,
2013-01-27 23:46:00,44.8,16.7,29.35,SSE,160,4.0,4.0,32,0.00,,---,0.00,VWS V14.01,2013-01-28 05:46:00,
2013-01-27 23:48:00,44.8,16.7,29.35,SSE,162,4.0,4.0,32,0.00,,---,0.00,VWS V14.01,2013-01-28 05:48:00,
2013-01-27 23:49:00,44.8,16.7,29.35,SSE,162,4.0,4.0,32,0.00,,---,0.00,VWS V14.01,2013-01-28 05:49:00,
2013-01-27 23:51:00,44.6,16.6,29.35,South,171,2.7,4.0,32,0.00,,---,0.00,VWS V14.01,2013-01-28 05:51:00,
2013-01-27 23:53:00,44.6,16.6,29.35,SSE,157,3.6,3.6,32,0.00,,---,0.00,VWS V14.01,2013-01-28 05:53:00,
2013-01-27 23:54:00,44.6,16.6,29.35,SSE,157,3.6,3.6,32,0.00,,---,0.00,VWS V14.01,2013-01-28 05:54:00,
2013-01-27 23:56:00,44.6,17.3,29.35,SSE,157,3.6,3.6,33,0.00,,---,0.00,VWS V14.01,2013-01-28 05:56:00,
2013-01-27 23:58:00,44.6,17.3,29.35,SSE,157,3.6,3.6,33,0.00,,---,0.00,VWS V14.01,2013-01-28 05:58:00,
2013-01-27 23:59:00,44.6,17.3,29.35,SE,140,3.1,3.6,33,0.00,,---,0.00,VWS V14.01,2013-01-28 05:59:00,